Time,TemperatureF,DewpointF,PressureIn,WindDirection,WindDirectionDegrees,WindSpeedMPH,WindSpeedGustMPH,Humidity,HourlyPrecipIn,Conditions,Clouds,dailyrainin,SoftwareType,DateUTC
2013-04-16 00:01:00,42.4,42.4,29.99,NNE,15,11.0,11.0,100,0.08,,SCT120,0.00,VWS V14.01,2013-04-16 05:01:00,
2013-04-16 00:02:00,42.4,42.4,29.99,NNE,27,8.7,11.0,100,0.08,,SCT120,0.00,VWS V14.01,2013-04-16 05:02:00,
2013-04-16 00:03:00,42.3,42.3,29.99,NNE,33,12.3,13.2,100,0.08,,SCT120,0.00,VWS V14.01,2013-04-16 05:03:00,
2013-04-16 00:05:00,42.4,42.4,29.99,NNE,22,8.1,11.0,100,0.04,,SCT120,0.00,VWS V14.01,2013-04-16 05:05:00,
2013-04-16 00:06:00,42.4,42.4,29.99,NNE,12,10.5,12.3,100,0.04,,SCT120,0.00,VWS V14.01,2013-04-16 05:06:00,
2013-04-16 00:07:00,42.6,42.6,29.99,North,2,7.6,10.1,100,0.04,,SCT120,0.00,VWS V14.01,2013-04-16 05:07:00,
2013-04-16 00:09:00,42.6,42.6,29.99,NNE,31,10.1,12.3,100,0.04,,SCT120,0.00,VWS V14.01,2013-04-16 05:09:00,
2013-04-16 00:10:00,42.6,42.6,29.99,North,5,10.1,12.8,100,0.04,,SCT120,0.00,VWS V14.01,2013-04-16 05:10:00,
2013-04-16 00:11:00,42.8,41.2,29.99,North,3,8.7,10.5,94,0.04,,SCT120,0.00,VWS V14.01,2013-04-16 05:11:00,
2013-04-16 00:12:00,42.8,41.2,29.99,North,11,8.3,10.5,94,0.04,,SCT120,0.00,VWS V14.01,2013-04-16 05:12:00,
2013-04-16 00:14:00,43.0,41.4,29.99,NNE,23,8.7,8.7,94,0.04,,SCT120,0.00,VWS V14.01,2013-04-16 05:14:00,
2013-04-16 00:16:00,43.0,41.4,29.99,North,357,13.2,13.2,94,0.04,,SCT120,0.00,VWS V14.01,2013-04-16 05:16:00,
2013-04-16 00:17:00,43.0,40.8,29.99,North,10,8.1,13.2,92,0.04,,SCT120,0.00,VWS V14.01,2013-04-16 05:17:00,
2013-04-16 00:19:00,43.0,41.4,29.99,North,6,8.7,11.0,94,0.04,,SCT120,0.00,VWS V14.01,2013-04-16 05:19:00,
2013-04-16 00:21:00,43.0,40.8,29.99,North,0,10.5,10.5,92,0.04,,SCT120,0.00,VWS V14.01,2013-04-16 05:21:00,
2013-04-16 00:22:00,43.0,40.2,29.99,North,0,6.7,8.1,90,0.04,,SCT120,0.00,VWS V14.01,2013-04-16 05:22:00,
2013-04-16 00:24:00,43.0,39.7,29.99,North,357,9.6,12.3,88,0.04,,SCT120,0.00,VWS V14.01,2013-04-16 05:24:00,
2013-04-16 00:26:00,43.0,39.1,29.99,North,8,8.3,10.1,86,0.04,,SCT120,0.00,VWS V14.01,2013-04-16 05:26:00,
2013-04-16 00:28:00,43.0,39.1,29.99,North,1,4.0,4.0,86,0.04,,SCT120,0.00,VWS V14.01,2013-04-16 05:28:00,
2013-04-16 00:30:00,43.0,39.7,29.99,NNE,13,5.4,5.4,88,0.04,,SCT120,0.00,VWS V14.01,2013-04-16 05:30:00,
2013-04-16 00:31:00,43.0,40.2,29.99,North,4,5.4,6.3,90,0.04,,SCT120,0.00,VWS V14.01,2013-04-16 05:31:00,
2013-04-16 00:32:00,43.0,40.2,29.99,NNE,15,10.1,10.5,90,0.04,,SCT120,0.00,VWS V14.01,2013-04-16 05:32:00,
2013-04-16 00:33:00,43.0,39.7,29.99,North,5,5.8,6.3,88,0.00,,SCT120,0.00,VWS V14.01,2013-04-16 05:33:00,
2013-04-16 00:35:00,43.0,39.1,29.99,North,11,8.1,8.7,86,0.00,,SCT120,0.00,VWS V14.01,2013-04-16 05:35:00,
2013-04-16 00:36:00,42.8,38.9,29.99,NNE,14,9.6,9.6,86,0.00,,SCT120,0.00,VWS V14.01,2013-04-16 05:36:00,
2013-04-16 00:37:00,42.8,38.9,29.99,NNE,13,8.7,9.6,86,0.00,,SCT120,0.00,VWS V14.01,2013-04-16 05:37:00,
2013-04-16 00:38:00,43.0,38.5,29.99,NNE,26,8.1,8.1,84,0.00,,SCT120,0.00,VWS V14.01,2013-04-16 05:38:00,
2013-04-16 00:39:00,43.0,38.5,30.02,NNE,17,7.6,8.1,84,0.00,,SCT120,0.00,VWS V14.01,2013-04-16 05:39:00,
2013-04-16 00:40:00,43.0,38.5,30.02,NNE,16,5.8,7.2,84,0.00,,SCT120,0.00,VWS V14.01,2013-04-16 05:40:00,
2013-04-16 00:42:00,43.0,38.5,30.02,North,6,3.6,5.8,84,0.00,,SCT120,0.00,VWS V14.01,2013-04-16 05:42:00,
2013-04-16 00:45:00,43.0,39.1,30.02,North,5,2.2,3.6,86,0.00,,SCT120,0.00,VWS V14.01,2013-04-16 05:45:00,
2013-04-16 00:46:00,43.0,39.1,30.02,NNE,17,6.3,6.3,86,0.00,,SCT120,0.00,VWS V14.01,2013-04-16 05:46:00,
2013-04-16 00:48:00,42.8,38.3,30.02,NNE,24,8.1,9.2,84,0.00,,SCT120,0.00,VWS V14.01,2013-04-16 05:48:00,
2013-04-16 00:49:00,42.8,37.7,30.02,North,5,8.1,8.7,82,0.00,,SCT120,0.00,VWS V14.01,2013-04-16 05:49:00,
2013-04-16 00:51:00,43.0,38.5,30.02,North,7,8.3,8.3,84,0.00,,SCT120,0.00,VWS V14.01,2013-04-16 05:51:00,
2013-04-16 00:52:00,43.0,38.5,30.02,North,0,11.0,11.0,84,0.00,,SCT120,0.00,VWS V14.01,2013-04-16 05:52:00,
2013-04-16 00:53:00,43.0,38.5,30.02,North,0,8.3,11.0,84,0.00,,SCT120,0.00,VWS V14.01,2013-04-16 05:53:00,
2013-04-16 00:56:00,43.0,37.9,30.02,North,8,5.4,6.3,82,0.00,,SCT120,0.00,VWS V14.01,2013-04-16 05:56:00,
2013-04-16 00:57:00,43.0,37.9,30.02,NNE,14,5.4,5.4,82,0.00,,SCT120,0.00,VWS V14.01,2013-04-16 05:57:00,
2013-04-16 00:58:00,43.0,37.9,30.02,North,353,4.9,7.6,82,0.00,,SCT120,0.00,VWS V14.01,2013-04-16 05:58:00,
2013-04-16 01:01:00,43.0,37.2,30.02,North,11,2.7,4.0,80,0.00,,SCT120,0.00,VWS V14.01,2013-04-16 06:01:00,
2013-04-16 01:02:00,43.0,37.2,30.02,North,11,0.0,2.7,80,0.00,,SCT120,0.00,VWS V14.01,2013-04-16 06:02:00,
2013-04-16 01:03:00,43.0,37.9,30.02,North,11,0.0,0.0,82,0.00,,SCT120,0.00,VWS V14.01,2013-04-16 06:03:00,
2013-04-16 01:04:00,43.0,37.9,30.02,North,11,0.0,0.0,82,0.00,,SCT120,0.00,VWS V14.01,2013-04-16 06:04:00,
2013-04-16 01:06:00,43.0,37.9,30.02,NNE,24,5.4,5.4,82,0.00,,SCT120,0.00,VWS V14.01,2013-04-16 06:06:00,
2013-04-16 01:08:00,43.0,37.9,30.02,NNE,25,3.1,4.0,82,0.00,,SCT120,0.00,VWS V14.01,2013-04-16 06:08:00,
2013-04-16 01:10:00,43.0,37.9,30.02,NNE,20,3.1,4.0,82,0.00,,SCT120,0.00,VWS V14.01,2013-04-16 06:10:00,
2013-04-16 01:13:00,43.2,38.0,30.02,NE,37,0.0,3.1,82,0.00,,SCT120,0.00,VWS V14.01,2013-04-16 06:13:00,
2013-04-16 01:14:00,43.2,38.0,30.02,NNE,31,5.8,5.8,82,0.00,,SCT120,0.00,VWS V14.01,2013-04-16 06:14:00,
2013-04-16 01:15:00,43.2,38.0,30.02,NNE,24,5.8,6.3,82,0.00,,SCT120,0.00,VWS V14.01,2013-04-16 06:15:00,
2013-04-16 01:18:00,43.2,37.4,30.02,NE,38,4.9,4.9,80,0.00,,SCT120,0.00,VWS V14.01,2013-04-16 06:18:00,
2013-04-16 01:19:00,43.2,37.4,30.02,NNE,27,4.9,4.9,80,0.00,,SCT120,0.00,VWS V14.01,2013-04-16 06:19:00,
2013-04-16 01:20:00,43.2,37.4,30.02,NNE,20,3.6,4.0,80,0.00,,SCT120,0.00,VWS V14.01,2013-04-16 06:20:00,
2013-04-16 01:24:00,43.2,36.8,30.02,NNW,343,5.8,5.8,78,0.00,,SCT120,0.00,VWS V14.01,2013-04-16 06:24:00,
2013-04-16 01:25:00,43.3,37.6,30.02,North,0,7.2,8.1,80,0.00,,SCT120,0.00,VWS V14.01,2013-04-16 06:25:00,
2013-04-16 01:28:00,43.3,36.3,30.02,NNE,20,7.2,8.3,76,0.00,,SCT120,0.00,VWS V14.01,2013-04-16 06:28:00,
2013-04-16 01:30:00,43.3,36.3,30.02,North,10,8.1,8.1,76,0.00,,SCT120,0.00,VWS V14.01,2013-04-16 06:30:00,
2013-04-16 01:31:00,43.3,36.3,30.02,North,8,5.8,8.7,76,0.00,,SCT120,0.00,VWS V14.01,2013-04-16 06:31:00,
2013-04-16 01:34:00,43.3,36.3,30.02,North,7,6.3,7.6,76,0.00,,SCT120,0.00,VWS V14.01,2013-04-16 06:34:00,
2013-04-16 01:35:00,43.3,36.3,30.02,NNE,13,7.6,8.3,76,0.00,,SCT120,0.00,VWS V14.01,2013-04-16 06:35:00,
2013-04-16 01:36:00,43.3,36.3,30.02,NNE,15,8.1,10.1,76,0.00,,SCT120,0.00,VWS V14.01,2013-04-16 06:36:00,
2013-04-16 01:37:00,43.3,35.6,30.02,NNE,21,5.8,8.1,74,0.00,,SCT120,0.00,VWS V14.01,2013-04-16 06:37:00,
2013-04-16 01:39:00,43.3,35.6,30.02,North,357,8.3,8.3,74,0.00,,SCT120,0.00,VWS V14.01,2013-04-16 06:39:00,
2013-04-16 01:40:00,43.3,34.2,30.02,NNE,28,6.3,6.3,70,0.00,,SCT120,0.00,VWS V14.01,2013-04-16 06:40:00,
2013-04-16 01:42:00,43.2,34.0,30.02,NNE,28,8.3,9.2,70,0.00,,SCT120,0.00,VWS V14.01,2013-04-16 06:42:00,
2013-04-16 01:43:00,43.3,34.2,30.02,NNE,23,8.7,8.7,70,0.00,,SCT120,0.00,VWS V14.01,2013-04-16 06:43:00,
2013-04-16 01:45:00,43.3,34.9,30.02,North,7,11.0,11.0,72,0.00,,SCT120,0.00,VWS V14.01,2013-04-16 06:45:00,
2013-04-16 01:46:00,43.2,35.5,30.02,North,5,11.0,11.0,74,0.00,,SCT120,0.00,VWS V14.01,2013-04-16 06:46:00,
2013-04-16 01:48:00,43.0,35.3,30.02,North,11,8.7,10.1,74,0.00,,SCT120,0.00,VWS V14.01,2013-04-16 06:48:00,
2013-04-16 01:51:00,42.6,36.2,30.02,NNE,21,7.6,7.6,78,0.00,,SCT120,0.00,VWS V14.01,2013-04-16 06:51:00,
2013-04-16 01:52:00,42.3,35.9,30.02,NNE,31,5.8,6.3,78,0.00,,SCT120,0.00,VWS V14.01,2013-04-16 06:52:00,
2013-04-16 01:53:00,42.3,36.5,30.02,NNE,27,4.9,6.3,80,0.00,,SCT120,0.00,VWS V14.01,2013-04-16 06:53:00,
2013-04-16 01:56:00,41.7,36.6,30.02,NE,39,6.3,8.3,82,0.00,,SCT120,0.00,VWS V14.01,2013-04-16 06:56:00,
2013-04-16 01:58:00,41.5,36.5,30.02,NE,39,4.0,6.3,82,0.00,,SCT120,0.00,VWS V14.01,2013-04-16 06:58:00,
2013-04-16 02:00:00,41.5,37.1,30.02,North,0,8.1,8.7,84,0.00,,SCT120,0.00,VWS V14.01,2013-04-16 07:00:00,
2013-04-16 02:01:00,41.5,37.7,30.02,North,357,10.1,10.1,86,0.00,,SCT120,0.00,VWS V14.01,2013-04-16 07:01:00,
2013-04-16 02:03:00,41.5,37.1,30.02,North,0,8.7,12.8,84,0.00,,SCT120,0.00,VWS V14.01,2013-04-16 07:03:00,
2013-04-16 02:05:00,41.5,36.5,30.02,North,4,7.6,11.0,82,0.00,,SCT120,0.00,VWS V14.01,2013-04-16 07:05:00,
2013-04-16 02:07:00,41.5,35.8,30.02,NNE,27,11.0,13.2,80,0.00,,SCT120,0.00,VWS V14.01,2013-04-16 07:07:00,
2013-04-16 02:09:00,41.5,36.5,30.02,NNE,33,7.6,10.5,82,0.00,,SCT120,0.00,VWS V14.01,2013-04-16 07:09:00,
2013-04-16 02:12:00,41.4,36.3,30.02,NNE,21,4.0,10.5,82,0.00,,SCT120,0.00,VWS V14.01,2013-04-16 07:12:00,
2013-04-16 02:13:00,41.5,36.5,30.02,NE,34,9.2,9.2,82,0.00,,SCT120,0.00,VWS V14.01,2013-04-16 07:13:00,
2013-04-16 02:14:00,41.5,37.1,30.02,NNE,18,8.1,10.5,84,0.00,,SCT120,0.00,VWS V14.01,2013-04-16 07:14:00,
2013-04-16 02:15:00,41.5,37.1,30.02,NNE,31,7.2,7.6,84,0.00,,SCT120,0.00,VWS V14.01,2013-04-16 07:15:00,
2013-04-16 02:17:00,41.7,37.2,30.02,NNE,22,11.0,11.0,84,0.00,,SCT120,0.00,VWS V14.01,2013-04-16 07:17:00,
2013-04-16 02:19:00,41.7,36.6,30.02,North,5,10.5,13.2,82,0.00,,SCT120,0.00,VWS V14.01,2013-04-16 07:19:00,
2013-04-16 02:20:00,41.7,36.6,30.02,North,353,7.6,8.1,82,0.00,,SCT120,0.00,VWS V14.01,2013-04-16 07:20:00,
2013-04-16 02:22:00,41.9,38.6,30.02,NW,311,8.3,9.2,88,0.00,,SCT120,0.00,VWS V14.01,2013-04-16 07:22:00,
2013-04-16 02:23:00,42.1,39.9,30.02,WNW,295,6.3,8.7,92,0.00,,SCT120,0.00,VWS V14.01,2013-04-16 07:23:00,
2013-04-16 02:24:00,42.1,39.4,30.08,NW,308,9.2,9.2,90,0.00,,SCT120,0.00,VWS V14.01,2013-04-16 07:24:00,
2013-04-16 02:25:00,42.1,39.4,30.08,NW,313,4.0,8.3,90,0.00,,SCT120,0.00,VWS V14.01,2013-04-16 07:25:00,
2013-04-16 02:28:00,42.1,38.2,30.08,NNE,27,5.4,8.1,86,0.00,,SCT120,0.00,VWS V14.01,2013-04-16 07:28:00,
2013-04-16 02:29:00,41.9,38.0,30.08,NNE,31,4.0,4.0,86,0.00,,SCT120,0.00,VWS V14.01,2013-04-16 07:29:00,
2013-04-16 02:30:00,41.7,37.8,30.08,NE,38,8.3,8.3,86,0.04,,SCT120,0.04,VWS V14.01,2013-04-16 07:30:00,
2013-04-16 02:32:00,41.7,38.4,30.08,North,353,6.3,7.6,88,0.04,,SCT120,0.04,VWS V14.01,2013-04-16 07:32:00,
2013-04-16 02:34:00,41.5,41.0,30.08,NNW,328,8.3,8.3,98,0.04,,SCT120,0.04,VWS V14.01,2013-04-16 07:34:00,
2013-04-16 02:35:00,41.5,41.0,30.08,NNW,330,8.1,8.3,98,0.04,,SCT120,0.04,VWS V14.01,2013-04-16 07:35:00,
2013-04-16 02:36:00,41.2,41.2,30.08,North,353,8.1,8.1,100,0.04,,SCT120,0.04,VWS V14.01,2013-04-16 07:36:00,
2013-04-16 02:37:00,41.2,41.2,30.08,North,0,8.1,8.1,100,0.04,,SCT120,0.04,VWS V14.01,2013-04-16 07:37:00,
2013-04-16 02:40:00,41.0,41.0,30.05,NNE,14,8.7,13.2,100,0.04,,SCT120,0.04,VWS V14.01,2013-04-16 07:40:00,
2013-04-16 02:41:00,41.0,41.0,30.05,NNE,20,8.7,11.0,100,0.04,,SCT120,0.04,VWS V14.01,2013-04-16 07:41:00,
2013-04-16 02:42:00,41.0,41.0,30.05,North,2,7.6,10.1,100,0.04,,SCT120,0.04,VWS V14.01,2013-04-16 07:42:00,
2013-04-16 02:43:00,41.0,41.0,30.05,NNE,12,8.3,8.3,100,0.04,,SCT120,0.04,VWS V14.01,2013-04-16 07:43:00,
2013-04-16 02:45:00,40.6,40.6,30.05,NNE,19,13.6,13.6,100,0.04,,SCT120,0.04,VWS V14.01,2013-04-16 07:45:00,
2013-04-16 02:46:00,40.6,40.6,30.05,North,357,9.2,11.0,100,0.04,,SCT120,0.04,VWS V14.01,2013-04-16 07:46:00,
2013-04-16 02:47:00,40.6,40.6,30.05,NNE,14,7.2,11.0,100,0.04,,SCT120,0.04,VWS V14.01,2013-04-16 07:47:00,
2013-04-16 02:48:00,40.6,40.6,30.05,NNE,27,6.3,8.1,100,0.04,,SCT120,0.04,VWS V14.01,2013-04-16 07:48:00,
2013-04-16 02:52:00,40.6,40.6,30.05,North,357,8.1,8.1,100,0.04,,SCT120,0.04,VWS V14.01,2013-04-16 07:52:00,
2013-04-16 02:53:00,40.6,40.6,30.05,NNW,337,8.3,8.7,100,0.04,,SCT120,0.04,VWS V14.01,2013-04-16 07:53:00,
2013-04-16 02:54:00,40.6,40.6,30.08,NNW,327,8.1,8.7,100,0.04,,SCT120,0.04,VWS V14.01,2013-04-16 07:54:00,
2013-04-16 02:55:00,40.8,40.8,30.08,NW,322,6.7,8.3,100,0.04,,SCT120,0.04,VWS V14.01,2013-04-16 07:55:00,
2013-04-16 02:57:00,40.8,40.8,30.08,NNW,343,6.3,8.1,100,0.04,,SCT120,0.04,VWS V14.01,2013-04-16 07:57:00,
2013-04-16 02:58:00,40.8,40.8,30.08,North,8,4.0,6.3,100,0.04,,SCT120,0.04,VWS V14.01,2013-04-16 07:58:00,
2013-04-16 02:59:00,40.8,40.8,30.08,North,11,2.7,4.9,100,0.04,,SCT120,0.04,VWS V14.01,2013-04-16 07:59:00,
2013-04-16 03:00:00,40.6,40.6,30.08,NNE,30,4.0,5.4,100,0.04,,SCT120,0.04,VWS V14.01,2013-04-16 08:00:00,
2013-04-16 03:02:00,40.6,40.6,30.08,NNE,23,8.1,8.1,100,0.08,,SCT120,0.08,VWS V14.01,2013-04-16 08:02:00,
2013-04-16 03:03:00,40.6,40.6,30.08,NE,35,8.7,8.7,100,0.08,,SCT120,0.08,VWS V14.01,2013-04-16 08:03:00,
2013-04-16 03:04:00,40.6,40.6,30.08,NNE,14,8.7,8.7,100,0.08,,SCT120,0.08,VWS V14.01,2013-04-16 08:04:00,
2013-04-16 03:05:00,40.8,40.8,30.08,North,9,8.7,10.1,100,0.08,,SCT120,0.08,VWS V14.01,2013-04-16 08:05:00,
2013-04-16 03:06:00,40.8,40.8,30.08,NNW,346,8.1,8.7,100,0.08,,SCT120,0.08,VWS V14.01,2013-04-16 08:06:00,
2013-04-16 03:08:00,41.0,41.0,30.08,NNE,14,6.3,8.7,100,0.08,,SCT120,0.08,VWS V14.01,2013-04-16 08:08:00,
2013-04-16 03:09:00,41.0,41.0,30.08,North,2,7.6,7.6,100,0.08,,SCT120,0.08,VWS V14.01,2013-04-16 08:09:00,
2013-04-16 03:11:00,41.0,41.0,30.05,NNE,18,5.8,6.3,100,0.08,,SCT120,0.08,VWS V14.01,2013-04-16 08:11:00,
2013-04-16 03:12:00,41.0,41.0,30.05,NNE,14,6.3,6.3,100,0.08,,SCT120,0.08,VWS V14.01,2013-04-16 08:12:00,
2013-04-16 03:14:00,41.0,41.0,30.05,North,1,5.8,5.8,100,0.08,,SCT120,0.08,VWS V14.01,2013-04-16 08:14:00,
2013-04-16 03:18:00,41.0,41.0,30.05,NNE,14,5.8,6.3,100,0.08,,SCT120,0.08,VWS V14.01,2013-04-16 08:18:00,
2013-04-16 03:19:00,41.0,41.0,30.05,North,5,5.4,5.8,100,0.08,,SCT120,0.08,VWS V14.01,2013-04-16 08:19:00,
2013-04-16 03:20:00,41.0,41.0,30.05,NNE,15,4.9,6.3,100,0.08,,SCT120,0.08,VWS V14.01,2013-04-16 08:20:00,
2013-04-16 03:22:00,41.0,41.0,30.05,NNE,19,6.3,6.3,100,0.08,,SCT120,0.08,VWS V14.01,2013-04-16 08:22:00,
2013-04-16 03:23:00,41.0,41.0,30.05,NNE,18,4.0,5.4,100,0.08,,SCT120,0.08,VWS V14.01,2013-04-16 08:23:00,
2013-04-16 03:24:00,41.0,41.0,30.05,NNE,24,3.6,4.0,100,0.08,,SCT120,0.08,VWS V14.01,2013-04-16 08:24:00,
2013-04-16 03:25:00,41.0,41.0,30.05,NNE,19,2.7,3.6,100,0.08,,SCT120,0.08,VWS V14.01,2013-04-16 08:25:00,
2013-04-16 03:26:00,41.0,41.0,30.05,NE,35,2.7,4.0,100,0.08,,SCT120,0.08,VWS V14.01,2013-04-16 08:26:00,
2013-04-16 03:28:00,41.0,41.0,30.05,NNE,29,3.6,4.9,100,0.08,,SCT120,0.08,VWS V14.01,2013-04-16 08:28:00,
2013-04-16 03:29:00,41.2,41.2,30.05,NNE,25,3.6,4.0,100,0.08,,SCT120,0.08,VWS V14.01,2013-04-16 08:29:00,
2013-04-16 03:30:00,41.2,41.2,30.05,NNE,29,3.6,4.0,100,0.08,,SCT120,0.08,VWS V14.01,2013-04-16 08:30:00,
2013-04-16 03:31:00,41.2,41.2,30.05,NNE,15,3.6,3.6,100,0.04,,SCT120,0.08,VWS V14.01,2013-04-16 08:31:00,
2013-04-16 03:34:00,41.2,41.2,30.05,NNE,21,3.1,4.0,100,0.04,,SCT120,0.08,VWS V14.01,2013-04-16 08:34:00,
2013-04-16 03:36:00,41.2,41.2,30.05,North,7,3.1,4.0,100,0.04,,SCT120,0.08,VWS V14.01,2013-04-16 08:36:00,
2013-04-16 03:37:00,41.2,41.2,30.05,North,7,3.1,4.0,100,0.04,,SCT120,0.08,VWS V14.01,2013-04-16 08:37:00,
2013-04-16 03:40:00,41.4,41.4,30.05,North,353,2.7,4.0,100,0.04,,SCT120,0.08,VWS V14.01,2013-04-16 08:40:00,
2013-04-16 03:42:00,41.5,41.5,30.05,North,10,6.3,6.3,100,0.04,,SCT120,0.08,VWS V14.01,2013-04-16 08:42:00,
2013-04-16 03:43:00,41.5,41.5,30.05,North,11,4.0,4.0,100,0.04,,SCT120,0.08,VWS V14.01,2013-04-16 08:43:00,
2013-04-16 03:44:00,41.5,41.5,30.05,North,7,5.4,5.4,100,0.04,,SCT120,0.08,VWS V14.01,2013-04-16 08:44:00,
2013-04-16 03:45:00,41.5,41.5,30.05,NNE,15,5.4,6.3,100,0.04,,SCT120,0.08,VWS V14.01,2013-04-16 08:45:00,
2013-04-16 03:46:00,41.5,41.5,30.05,NNE,14,5.4,5.8,100,0.04,,SCT120,0.08,VWS V14.01,2013-04-16 08:46:00,
2013-04-16 03:48:00,41.5,41.5,30.05,NNE,21,5.4,7.6,100,0.04,,SCT120,0.08,VWS V14.01,2013-04-16 08:48:00,
2013-04-16 03:49:00,41.5,41.5,30.05,NNE,23,7.2,8.7,100,0.04,,SCT120,0.08,VWS V14.01,2013-04-16 08:49:00,
2013-04-16 03:50:00,41.5,41.5,30.05,NNE,15,5.4,8.1,100,0.04,,SCT120,0.08,VWS V14.01,2013-04-16 08:50:00,
2013-04-16 03:51:00,41.5,41.5,30.05,North,3,5.4,5.4,100,0.04,,SCT120,0.08,VWS V14.01,2013-04-16 08:51:00,
2013-04-16 03:52:00,41.7,41.7,30.05,North,11,4.0,5.4,100,0.04,,SCT120,0.08,VWS V14.01,2013-04-16 08:52:00,
2013-04-16 03:53:00,41.7,41.7,30.05,North,357,3.1,4.0,100,0.04,,SCT120,0.08,VWS V14.01,2013-04-16 08:53:00,
2013-04-16 03:55:00,41.7,41.7,30.05,North,5,5.4,5.8,100,0.04,,SCT120,0.08,VWS V14.01,2013-04-16 08:55:00,
2013-04-16 03:56:00,41.7,41.7,30.05,NNE,16,4.0,5.4,100,0.04,,SCT120,0.08,VWS V14.01,2013-04-16 08:56:00,
2013-04-16 03:57:00,41.7,41.7,30.05,NE,37,4.0,4.0,100,0.04,,SCT120,0.08,VWS V14.01,2013-04-16 08:57:00,
2013-04-16 03:59:00,41.7,41.7,30.05,North,10,5.8,5.8,100,0.04,,SCT120,0.08,VWS V14.01,2013-04-16 08:59:00,
2013-04-16 04:00:00,41.7,41.7,30.05,NNE,24,4.9,5.4,100,0.04,,SCT120,0.08,VWS V14.01,2013-04-16 09:00:00,
2013-04-16 04:01:00,41.7,41.7,30.05,NNE,19,4.9,6.3,100,0.04,,SCT120,0.08,VWS V14.01,2013-04-16 09:01:00,
2013-04-16 04:02:00,41.7,41.7,30.05,NNE,19,4.9,6.3,100,0.04,,SCT120,0.08,VWS V14.01,2013-04-16 09:02:00,
2013-04-16 04:03:00,41.7,41.7,30.05,NE,46,3.1,5.8,100,0.00,,SCT120,0.08,VWS V14.01,2013-04-16 09:03:00,
2013-04-16 04:05:00,41.7,41.7,30.05,NE,39,3.6,4.9,100,0.00,,SCT120,0.08,VWS V14.01,2013-04-16 09:05:00,
2013-04-16 04:07:00,41.7,41.7,30.05,NNE,16,3.1,3.1,100,0.00,,SCT120,0.08,VWS V14.01,2013-04-16 09:07:00,
2013-04-16 04:08:00,41.7,41.7,30.05,NNE,29,4.0,4.0,100,0.00,,SCT120,0.08,VWS V14.01,2013-04-16 09:08:00,
2013-04-16 04:11:00,41.9,41.9,30.05,North,10,4.0,4.0,100,0.00,,SCT120,0.08,VWS V14.01,2013-04-16 09:11:00,
2013-04-16 04:12:00,41.9,41.9,30.05,NNE,16,0.0,2.7,100,0.00,,SCT120,0.08,VWS V14.01,2013-04-16 09:12:00,
2013-04-16 04:13:00,41.9,41.9,30.05,NNE,16,0.0,2.7,100,0.00,,SCT120,0.08,VWS V14.01,2013-04-16 09:13:00,
2013-04-16 04:16:00,41.9,41.9,30.05,NNE,16,0.0,0.0,100,0.00,,SCT120,0.08,VWS V14.01,2013-04-16 09:16:00,
2013-04-16 04:17:00,41.9,41.9,30.05,NNE,16,2.7,2.7,100,0.00,,SCT120,0.08,VWS V14.01,2013-04-16 09:17:00,
2013-04-16 04:18:00,41.9,41.9,30.05,NNE,29,4.0,4.0,100,0.00,,SCT120,0.08,VWS V14.01,2013-04-16 09:18:00,
2013-04-16 04:20:00,41.9,41.9,30.05,NNE,16,5.4,5.4,100,0.00,,SCT120,0.08,VWS V14.01,2013-04-16 09:20:00,
2013-04-16 04:22:00,42.1,42.1,30.05,North,11,4.0,5.4,100,0.00,,SCT120,0.08,VWS V14.01,2013-04-16 09:22:00,
2013-04-16 04:23:00,42.1,42.1,30.05,North,10,4.0,5.4,100,0.00,,SCT120,0.08,VWS V14.01,2013-04-16 09:23:00,
2013-04-16 04:24:00,42.1,42.1,30.05,NNE,12,5.4,5.4,100,0.00,,SCT120,0.08,VWS V14.01,2013-04-16 09:24:00,
2013-04-16 04:26:00,42.1,42.1,30.05,North,357,6.3,6.3,100,0.00,,SCT120,0.08,VWS V14.01,2013-04-16 09:26:00,
2013-04-16 04:27:00,42.3,42.3,30.05,North,10,5.8,6.7,100,0.00,,SCT120,0.08,VWS V14.01,2013-04-16 09:27:00,
2013-04-16 04:28:00,42.3,42.3,30.05,NNE,25,7.6,8.1,100,0.00,,SCT120,0.08,VWS V14.01,2013-04-16 09:28:00,
2013-04-16 04:29:00,42.3,42.3,30.05,North,5,8.1,8.1,100,0.00,,SCT120,0.08,VWS V14.01,2013-04-16 09:29:00,
2013-04-16 04:31:00,42.3,42.3,30.05,NNE,19,5.4,5.4,100,0.00,,SCT120,0.08,VWS V14.01,2013-04-16 09:31:00,
2013-04-16 04:33:00,42.3,42.3,30.05,North,8,8.3,8.3,100,0.00,,SCT120,0.08,VWS V14.01,2013-04-16 09:33:00,
2013-04-16 04:34:00,42.3,42.3,30.05,North,0,12.8,12.8,100,0.00,,SCT120,0.08,VWS V14.01,2013-04-16 09:34:00,
2013-04-16 04:35:00,42.1,42.1,30.05,North,357,6.3,6.3,100,0.00,,SCT120,0.08,VWS V14.01,2013-04-16 09:35:00,
2013-04-16 04:37:00,42.1,42.1,30.05,NNE,17,5.4,6.3,100,0.00,,SCT120,0.08,VWS V14.01,2013-04-16 09:37:00,
2013-04-16 04:39:00,42.1,42.1,30.05,North,357,6.3,8.3,100,0.00,,SCT120,0.08,VWS V14.01,2013-04-16 09:39:00,
2013-04-16 04:41:00,42.1,42.1,30.08,North,5,6.3,8.3,100,0.00,,SCT120,0.08,VWS V14.01,2013-04-16 09:41:00,
2013-04-16 04:42:00,42.1,42.1,30.08,North,357,8.1,8.1,100,0.00,,SCT120,0.08,VWS V14.01,2013-04-16 09:42:00,
2013-04-16 04:44:00,42.1,42.1,30.08,North,357,7.6,8.7,100,0.00,,SCT120,0.08,VWS V14.01,2013-04-16 09:44:00,
2013-04-16 04:45:00,42.1,42.1,30.08,NNW,341,7.6,8.7,100,0.00,,SCT120,0.08,VWS V14.01,2013-04-16 09:45:00,
2013-04-16 04:46:00,42.1,42.1,30.08,NNW,341,5.8,7.6,100,0.00,,SCT120,0.08,VWS V14.01,2013-04-16 09:46:00,
2013-04-16 04:48:00,42.1,42.1,30.08,NW,325,5.8,6.3,100,0.00,,SCT120,0.08,VWS V14.01,2013-04-16 09:48:00,
2013-04-16 04:49:00,42.1,42.1,30.08,NNW,346,4.9,4.9,100,0.00,,SCT120,0.08,VWS V14.01,2013-04-16 09:49:00,
2013-04-16 04:50:00,41.9,41.9,30.08,North,353,5.8,5.8,100,0.00,,SCT120,0.08,VWS V14.01,2013-04-16 09:50:00,
2013-04-16 04:51:00,41.9,41.9,30.08,North,0,4.0,5.8,100,0.00,,SCT120,0.08,VWS V14.01,2013-04-16 09:51:00,
2013-04-16 04:52:00,41.9,41.9,30.08,NNE,15,3.1,5.8,100,0.00,,SCT120,0.08,VWS V14.01,2013-04-16 09:52:00,
2013-04-16 04:53:00,41.9,41.9,30.08,North,5,5.8,8.7,100,0.00,,SCT120,0.08,VWS V14.01,2013-04-16 09:53:00,
2013-04-16 04:55:00,41.9,41.9,30.08,North,0,11.0,11.0,100,0.00,,SCT120,0.08,VWS V14.01,2013-04-16 09:55:00,
2013-04-16 04:56:00,41.7,41.7,30.08,NNE,18,8.1,8.7,100,0.00,,SCT120,0.08,VWS V14.01,2013-04-16 09:56:00,
2013-04-16 04:57:00,41.7,41.2,30.08,North,11,7.6,8.3,98,0.00,,SCT120,0.08,VWS V14.01,2013-04-16 09:57:00,
2013-04-16 04:59:00,41.7,41.2,30.08,NE,34,5.8,8.1,98,0.00,,SCT120,0.08,VWS V14.01,2013-04-16 09:59:00,
2013-04-16 05:00:00,41.7,40.7,30.08,NNE,25,4.0,8.1,96,0.00,,SCT120,0.08,VWS V14.01,2013-04-16 10:00:00,
2013-04-16 05:01:00,41.7,40.7,30.08,NE,38,5.4,6.7,96,0.00,,SCT120,0.08,VWS V14.01,2013-04-16 10:01:00,
2013-04-16 05:03:00,41.5,40.5,30.08,North,357,8.3,9.2,96,0.00,,SCT120,0.08,VWS V14.01,2013-04-16 10:03:00,
2013-04-16 05:04:00,41.5,40.5,30.08,North,10,8.1,8.3,96,0.00,,SCT120,0.08,VWS V14.01,2013-04-16 10:04:00,
2013-04-16 05:06:00,41.7,40.1,30.08,NE,40,4.0,4.9,94,0.00,,SCT120,0.08,VWS V14.01,2013-04-16 10:06:00,
2013-04-16 05:08:00,41.5,40.0,30.08,NNE,20,10.1,10.1,94,0.00,,SCT120,0.08,VWS V14.01,2013-04-16 10:08:00,
2013-04-16 05:09:00,41.5,40.0,30.08,NNE,23,10.1,10.1,94,0.00,,SCT120,0.08,VWS V14.01,2013-04-16 10:09:00,
2013-04-16 05:10:00,41.5,39.4,30.08,NNE,12,10.1,10.1,92,0.00,,SCT120,0.08,VWS V14.01,2013-04-16 10:10:00,
2013-04-16 05:11:00,41.5,38.8,30.08,North,5,7.6,10.1,90,0.00,,SCT120,0.08,VWS V14.01,2013-04-16 10:11:00,
2013-04-16 05:12:00,41.7,39.0,30.08,North,0,8.3,8.7,90,0.00,,SCT120,0.08,VWS V14.01,2013-04-16 10:12:00,
2013-04-16 05:13:00,41.7,39.6,30.08,North,3,7.2,8.7,92,0.00,,SCT120,0.08,VWS V14.01,2013-04-16 10:13:00,
2013-04-16 05:15:00,41.7,39.6,30.08,North,353,8.1,8.7,92,0.00,,SCT120,0.08,VWS V14.01,2013-04-16 10:15:00,
2013-04-16 05:17:00,41.7,39.0,30.08,North,0,8.1,8.7,90,0.00,,SCT120,0.08,VWS V14.01,2013-04-16 10:17:00,
2013-04-16 05:18:00,41.7,38.4,30.08,North,7,8.7,8.7,88,0.00,,SCT120,0.08,VWS V14.01,2013-04-16 10:18:00,
2013-04-16 05:19:00,41.7,38.4,30.08,NNE,15,6.3,8.7,88,0.00,,SCT120,0.08,VWS V14.01,2013-04-16 10:19:00,
2013-04-16 05:20:00,41.7,38.4,30.08,NE,51,8.1,8.1,88,0.00,,SCT120,0.08,VWS V14.01,2013-04-16 10:20:00,
2013-04-16 05:22:00,41.7,39.0,30.08,North,9,8.3,8.3,90,0.00,,SCT120,0.08,VWS V14.01,2013-04-16 10:22:00,
2013-04-16 05:24:00,41.7,39.0,30.08,North,357,8.1,8.7,90,0.00,,SCT120,0.08,VWS V14.01,2013-04-16 10:24:00,
2013-04-16 05:26:00,41.7,38.4,30.08,North,357,8.3,10.5,88,0.00,,SCT120,0.08,VWS V14.01,2013-04-16 10:26:00,
2013-04-16 05:27:00,41.7,38.4,30.08,North,3,8.1,11.0,88,0.00,,SCT120,0.08,VWS V14.01,2013-04-16 10:27:00,
2013-04-16 05:29:00,41.7,38.4,30.08,North,2,8.3,8.7,88,0.00,,SCT120,0.08,VWS V14.01,2013-04-16 10:29:00,
2013-04-16 05:30:00,41.7,38.4,30.08,North,6,10.5,10.5,88,0.00,,SCT120,0.08,VWS V14.01,2013-04-16 10:30:00,
2013-04-16 05:32:00,41.7,38.4,30.08,North,2,7.6,8.7,88,0.00,,SCT120,0.08,VWS V14.01,2013-04-16 10:32:00,
2013-04-16 05:33:00,41.7,38.4,30.08,North,357,10.1,12.8,88,0.00,,SCT120,0.08,VWS V14.01,2013-04-16 10:33:00,
2013-04-16 05:34:00,41.7,38.4,30.08,North,8,8.7,10.5,88,0.00,,SCT120,0.08,VWS V14.01,2013-04-16 10:34:00,
2013-04-16 05:35:00,41.7,37.8,30.08,North,6,8.7,8.7,86,0.00,,SCT120,0.08,VWS V14.01,2013-04-16 10:35:00,
2013-04-16 05:37:00,41.7,37.8,30.08,North,9,11.0,11.0,86,0.00,,SCT120,0.08,VWS V14.01,2013-04-16 10:37:00,
2013-04-16 05:39:00,41.7,36.6,30.08,NNE,12,10.5,11.0,82,0.00,,SCT120,0.08,VWS V14.01,2013-04-16 10:39:00,
2013-04-16 05:41:00,41.7,37.2,30.08,North,6,10.5,13.2,84,0.00,,SCT120,0.08,VWS V14.01,2013-04-16 10:41:00,
2013-04-16 05:42:00,41.7,37.2,30.08,North,6,9.2,11.0,84,0.00,,SCT120,0.08,VWS V14.01,2013-04-16 10:42:00,
2013-04-16 05:44:00,41.7,37.2,30.08,NNE,13,11.0,11.0,84,0.00,,SCT120,0.08,VWS V14.01,2013-04-16 10:44:00,
2013-04-16 05:45:00,41.7,36.6,30.08,NNE,17,8.3,11.0,82,0.00,,SCT120,0.08,VWS V14.01,2013-04-16 10:45:00,
2013-04-16 05:47:00,41.7,37.2,30.08,North,10,12.8,12.8,84,0.00,,SCT120,0.08,VWS V14.01,2013-04-16 10:47:00,
2013-04-16 05:48:00,41.7,37.2,30.08,NNE,18,8.1,12.8,84,0.00,,SCT120,0.08,VWS V14.01,2013-04-16 10:48:00,
2013-04-16 05:49:00,41.7,36.6,30.08,North,2,8.1,10.1,82,0.00,,SCT120,0.08,VWS V14.01,2013-04-16 10:49:00,
2013-04-16 05:52:00,41.7,36.6,30.08,NNE,28,11.9,11.9,82,0.00,,SCT120,0.08,VWS V14.01,2013-04-16 10:52:00,
2013-04-16 05:53:00,41.7,36.6,30.08,North,11,8.1,8.7,82,0.00,,SCT120,0.08,VWS V14.01,2013-04-16 10:53:00,
2013-04-16 05:54:00,41.7,36.6,30.08,North,357,7.6,10.5,82,0.00,,SCT120,0.08,VWS V14.01,2013-04-16 10:54:00,
2013-04-16 05:58:00,41.7,36.6,30.08,North,10,8.1,8.1,82,0.00,,SCT120,0.08,VWS V14.01,2013-04-16 10:58:00,
2013-04-16 05:59:00,41.7,36.0,30.08,NNE,17,6.3,8.7,80,0.00,,SCT120,0.08,VWS V14.01,2013-04-16 10:59:00,
2013-04-16 06:00:00,41.7,36.0,30.08,North,8,10.5,10.5,80,0.00,,SCT120,0.08,VWS V14.01,2013-04-16 11:00:00,
2013-04-16 06:03:00,41.7,36.0,30.08,NNE,29,5.8,10.5,80,0.00,,SCT120,0.08,VWS V14.01,2013-04-16 11:03:00,
2013-04-16 06:04:00,41.7,36.0,30.08,NNE,27,8.1,8.1,80,0.00,,SCT120,0.08,VWS V14.01,2013-04-16 11:04:00,
2013-04-16 06:05:00,41.5,35.8,30.08,NNE,22,10.5,10.5,80,0.00,,SCT120,0.08,VWS V14.01,2013-04-16 11:05:00,
2013-04-16 06:07:00,41.5,35.8,30.08,NNE,18,7.6,10.5,80,0.00,,SCT120,0.08,VWS V14.01,2013-04-16 11:07:00,
2013-04-16 06:08:00,41.7,36.0,30.08,NNE,14,9.2,9.2,80,0.00,,SCT120,0.08,VWS V14.01,2013-04-16 11:08:00,
2013-04-16 06:09:00,41.7,36.0,30.08,NNE,23,8.1,9.2,80,0.00,,SCT120,0.08,VWS V14.01,2013-04-16 11:09:00,
2013-04-16 06:12:00,41.5,35.8,30.08,NNE,25,8.7,12.3,80,0.00,,SCT120,0.08,VWS V14.01,2013-04-16 11:12:00,
2013-04-16 06:14:00,41.5,35.8,30.08,NNE,23,8.7,12.3,80,0.00,,SCT120,0.08,VWS V14.01,2013-04-16 11:14:00,
2013-04-16 06:15:00,41.5,35.8,30.08,North,7,5.4,10.1,80,0.00,,SCT120,0.08,VWS V14.01,2013-04-16 11:15:00,
2013-04-16 06:16:00,41.5,35.8,30.08,NNE,19,6.3,11.0,80,0.00,,SCT120,0.08,VWS V14.01,2013-04-16 11:16:00,
2013-04-16 06:17:00,41.5,35.8,30.08,North,8,7.6,8.3,80,0.00,,SCT120,0.08,VWS V14.01,2013-04-16 11:17:00,
2013-04-16 06:20:00,41.5,35.8,30.08,NNE,17,6.3,6.3,80,0.00,,SCT120,0.08,VWS V14.01,2013-04-16 11:20:00,
2013-04-16 06:21:00,41.5,35.8,30.08,North,8,8.1,8.7,80,0.00,,SCT120,0.08,VWS V14.01,2013-04-16 11:21:00,
2013-04-16 06:23:00,41.5,35.8,30.08,NE,49,8.3,10.5,80,0.00,,SCT120,0.08,VWS V14.01,2013-04-16 11:23:00,
2013-04-16 06:24:00,41.5,35.8,30.08,NNE,15,7.6,8.7,80,0.00,,SCT120,0.08,VWS V14.01,2013-04-16 11:24:00,
2013-04-16 06:25:00,41.5,35.8,30.08,North,7,8.3,8.3,80,0.00,,SCT120,0.08,VWS V14.01,2013-04-16 11:25:00,
2013-04-16 06:27:00,41.5,35.8,30.08,North,5,11.4,11.4,80,0.00,,SCT120,0.08,VWS V14.01,2013-04-16 11:27:00,
2013-04-16 06:28:00,41.5,35.2,30.08,North,0,10.1,12.8,78,0.00,,SCT120,0.08,VWS V14.01,2013-04-16 11:28:00,
2013-04-16 06:30:00,41.5,35.2,30.08,NE,52,4.9,8.1,78,0.00,,SCT120,0.08,VWS V14.01,2013-04-16 11:30:00,
2013-04-16 06:31:00,41.5,35.2,30.08,NNE,28,3.6,6.3,78,0.00,,SCT120,0.08,VWS V14.01,2013-04-16 11:31:00,
2013-04-16 06:32:00,41.5,35.2,30.08,NNE,19,3.1,7.6,78,0.00,,SCT120,0.08,VWS V14.01,2013-04-16 11:32:00,
2013-04-16 06:36:00,41.5,35.2,30.08,North,9,9.6,9.6,78,0.00,,SCT120,0.08,VWS V14.01,2013-04-16 11:36:00,
2013-04-16 06:38:00,41.5,35.8,30.08,NNW,346,8.1,8.7,80,0.00,,SCT120,0.08,VWS V14.01,2013-04-16 11:38:00,
2013-04-16 06:41:00,41.5,35.2,30.11,NNE,16,6.3,8.7,78,0.00,,SCT120,0.08,VWS V14.01,2013-04-16 11:41:00,
2013-04-16 06:42:00,41.5,35.2,30.11,NE,38,6.3,8.7,78,0.00,,SCT120,0.08,VWS V14.01,2013-04-16 11:42:00,
2013-04-16 06:43:00,41.5,35.2,30.11,NE,55,8.7,10.5,78,0.00,,SCT120,0.08,VWS V14.01,2013-04-16 11:43:00,
2013-04-16 06:44:00,41.5,35.2,30.11,NNE,13,6.3,8.7,78,0.00,,SCT120,0.08,VWS V14.01,2013-04-16 11:44:00,
2013-04-16 06:47:00,41.5,35.2,30.11,NNE,22,8.1,8.1,78,0.00,,SCT120,0.08,VWS V14.01,2013-04-16 11:47:00,
2013-04-16 06:48:00,41.5,35.2,30.11,NNE,29,8.3,8.3,78,0.00,,SCT120,0.08,VWS V14.01,2013-04-16 11:48:00,
2013-04-16 06:49:00,41.5,35.2,30.11,North,9,8.3,10.1,78,0.00,,SCT120,0.08,VWS V14.01,2013-04-16 11:49:00,
2013-04-16 06:53:00,41.5,34.5,30.11,North,9,9.6,9.6,76,0.00,,SCT120,0.08,VWS V14.01,2013-04-16 11:53:00,
2013-04-16 06:55:00,41.5,34.5,30.11,North,7,8.7,10.5,76,0.00,,SCT120,0.08,VWS V14.01,2013-04-16 11:55:00,
2013-04-16 06:58:00,41.5,33.2,30.11,NNE,18,13.2,13.2,72,0.00,,SCT120,0.08,VWS V14.01,2013-04-16 11:58:00,
2013-04-16 06:59:00,41.5,33.2,30.11,NNE,31,11.0,14.1,72,0.00,,SCT120,0.08,VWS V14.01,2013-04-16 11:59:00,
2013-04-16 07:00:00,41.5,33.9,30.11,NNE,30,9.6,11.0,74,0.00,,SCT120,0.08,VWS V14.01,2013-04-16 12:00:00,
2013-04-16 07:03:00,41.5,33.2,30.11,NNE,19,8.3,10.5,72,0.00,,SCT120,0.08,VWS V14.01,2013-04-16 12:03:00,
2013-04-16 07:04:00,41.5,33.9,30.11,NNE,15,7.6,8.3,74,0.00,,SCT120,0.08,VWS V14.01,2013-04-16 12:04:00,
2013-04-16 07:05:00,41.5,34.5,30.11,NE,50,10.5,10.5,76,0.00,,SCT120,0.08,VWS V14.01,2013-04-16 12:05:00,
2013-04-16 07:09:00,41.2,32.2,30.11,NNE,14,5.8,8.1,70,0.00,,SCT120,0.08,VWS V14.01,2013-04-16 12:09:00,
2013-04-16 07:10:00,41.2,32.8,30.11,NE,37,8.1,8.7,72,0.00,,SCT120,0.08,VWS V14.01,2013-04-16 12:10:00,
2013-04-16 07:11:00,41.0,32.0,30.11,NNE,12,8.7,8.7,70,0.00,,SCT120,0.08,VWS V14.01,2013-04-16 12:11:00,
2013-04-16 07:14:00,40.8,32.5,30.11,NNE,21,8.1,8.1,72,0.00,,SCT120,0.08,VWS V14.01,2013-04-16 12:14:00,
2013-04-16 07:15:00,40.8,33.2,30.11,NNE,14,10.1,10.1,74,0.00,,SCT120,0.08,VWS V14.01,2013-04-16 12:15:00,
2013-04-16 07:16:00,40.8,33.2,30.11,NNE,21,9.2,9.2,74,0.00,,SCT120,0.08,VWS V14.01,2013-04-16 12:16:00,
2013-04-16 07:17:00,40.6,33.0,30.11,NNE,31,8.1,9.2,74,0.00,,SCT120,0.08,VWS V14.01,2013-04-16 12:17:00,
2013-04-16 07:20:00,40.6,33.7,30.11,NNE,31,6.3,6.3,76,0.00,,SCT120,0.08,VWS V14.01,2013-04-16 12:20:00,
2013-04-16 07:21:00,40.6,34.3,30.11,NNE,20,6.7,8.3,78,0.00,,SCT120,0.08,VWS V14.01,2013-04-16 12:21:00,
2013-04-16 07:22:00,40.6,34.3,30.11,North,1,6.3,8.1,78,0.00,,SCT120,0.08,VWS V14.01,2013-04-16 12:22:00,
2013-04-16 07:25:00,40.6,34.3,30.14,NNE,30,6.3,6.3,78,0.00,,SCT120,0.08,VWS V14.01,2013-04-16 12:25:00,
2013-04-16 07:26:00,40.8,34.5,30.14,NNE,25,8.1,8.1,78,0.00,,SCT120,0.08,VWS V14.01,2013-04-16 12:26:00,
2013-04-16 07:27:00,40.8,33.8,30.14,NE,40,5.8,9.2,76,0.00,,SCT120,0.08,VWS V14.01,2013-04-16 12:27:00,
2013-04-16 07:28:00,40.8,33.8,30.14,NE,43,8.7,9.2,76,0.00,,SCT120,0.08,VWS V14.01,2013-04-16 12:28:00,
2013-04-16 07:31:00,41.0,32.7,30.14,NE,40,7.2,8.3,72,0.00,,SCT120,0.08,VWS V14.01,2013-04-16 12:31:00,
2013-04-16 07:32:00,41.0,33.4,30.14,North,357,5.8,8.7,74,0.00,,SCT120,0.08,VWS V14.01,2013-04-16 12:32:00,
2013-04-16 07:33:00,41.0,33.4,30.14,NE,47,7.6,7.6,74,0.00,,SCT120,0.08,VWS V14.01,2013-04-16 12:33:00,
2013-04-16 07:36:00,41.2,34.2,30.14,NE,45,3.6,8.3,76,0.00,,SCT120,0.08,VWS V14.01,2013-04-16 12:36:00,
2013-04-16 07:37:00,41.4,34.4,30.14,NNE,25,5.8,5.8,76,0.00,,SCT120,0.08,VWS V14.01,2013-04-16 12:37:00,
2013-04-16 07:39:00,41.5,34.5,30.14,NNE,12,8.7,8.7,76,0.00,,SCT120,0.08,VWS V14.01,2013-04-16 12:39:00,
2013-04-16 07:40:00,41.7,34.7,30.14,North,4,10.1,10.5,76,0.00,,SCT120,0.08,VWS V14.01,2013-04-16 12:40:00,
2013-04-16 07:42:00,41.7,32.7,30.14,NNE,24,10.1,11.0,70,0.00,,SCT120,0.08,VWS V14.01,2013-04-16 12:42:00,
2013-04-16 07:43:00,41.7,32.0,30.14,North,4,13.2,13.2,68,0.00,,SCT120,0.08,VWS V14.01,2013-04-16 12:43:00,
2013-04-16 07:44:00,41.7,32.0,30.14,North,6,11.9,13.6,68,0.00,,SCT120,0.08,VWS V14.01,2013-04-16 12:44:00,
2013-04-16 07:45:00,41.9,32.1,30.14,North,357,11.0,12.8,68,0.00,,SCT120,0.08,VWS V14.01,2013-04-16 12:45:00,
2013-04-16 07:47:00,41.7,32.7,30.14,North,353,10.1,13.2,70,0.00,,SCT120,0.08,VWS V14.01,2013-04-16 12:47:00,
2013-04-16 07:48:00,41.5,32.5,30.14,NNW,344,8.3,13.2,70,0.00,,SCT120,0.08,VWS V14.01,2013-04-16 12:48:00,
2013-04-16 07:49:00,41.7,33.4,30.14,North,353,14.1,14.1,72,0.00,,SCT120,0.08,VWS V14.01,2013-04-16 12:49:00,
2013-04-16 07:50:00,41.5,31.0,30.14,North,357,8.1,13.2,66,0.00,,SCT120,0.08,VWS V14.01,2013-04-16 12:50:00,
2013-04-16 07:53:00,41.5,32.5,30.14,ENE,66,5.8,5.8,70,0.00,,SCT120,0.08,VWS V14.01,2013-04-16 12:53:00,
2013-04-16 07:54:00,41.5,32.5,30.14,ENE,65,5.8,6.3,70,0.00,,SCT120,0.08,VWS V14.01,2013-04-16 12:54:00,
2013-04-16 07:56:00,41.4,32.3,30.11,NNE,30,8.3,8.3,70,0.00,,SCT120,0.08,VWS V14.01,2013-04-16 12:56:00,
2013-04-16 07:59:00,41.2,32.8,30.11,NNW,346,5.4,8.1,72,0.00,,SCT120,0.08,VWS V14.01,2013-04-16 12:59:00,
2013-04-16 08:00:00,41.2,32.8,30.11,NE,36,8.1,8.3,72,0.00,,SCT120,0.08,VWS V14.01,2013-04-16 13:00:00,
2013-04-16 08:02:00,41.0,32.7,30.11,NNE,22,5.4,8.1,72,0.00,,SCT120,0.08,VWS V14.01,2013-04-16 13:02:00,
2013-04-16 08:05:00,40.8,33.8,30.11,NNE,14,10.5,10.5,76,0.00,,SCT120,0.08,VWS V14.01,2013-04-16 13:05:00,
2013-04-16 08:06:00,40.5,34.8,30.11,North,7,6.3,10.5,80,0.00,,SCT120,0.08,VWS V14.01,2013-04-16 13:06:00,
2013-04-16 08:08:00,40.1,34.4,30.11,NNE,30,2.7,5.4,80,0.00,,SCT120,0.08,VWS V14.01,2013-04-16 13:08:00,
2013-04-16 08:10:00,39.9,34.9,30.14,NE,50,0.0,3.6,82,0.00,,SCT120,0.08,VWS V14.01,2013-04-16 13:10:00,
2013-04-16 08:11:00,39.9,34.9,30.14,NNE,24,2.7,2.7,82,0.00,,SCT120,0.08,VWS V14.01,2013-04-16 13:11:00,
2013-04-16 08:13:00,39.7,35.9,30.14,North,357,2.7,3.6,86,0.00,,SCT120,0.08,VWS V14.01,2013-04-16 13:13:00,
2013-04-16 08:16:00,39.7,36.5,30.14,North,11,5.4,5.8,88,0.00,,SCT120,0.08,VWS V14.01,2013-04-16 13:16:00,
2013-04-16 08:18:00,39.9,37.2,30.14,NNE,22,5.8,7.6,90,0.00,,SCT120,0.08,VWS V14.01,2013-04-16 13:18:00,
2013-04-16 08:19:00,39.9,37.2,30.14,North,7,8.3,8.7,90,0.00,,SCT120,0.08,VWS V14.01,2013-04-16 13:19:00,
2013-04-16 08:21:00,39.9,36.7,30.14,North,11,8.7,10.5,88,0.00,,SCT120,0.08,VWS V14.01,2013-04-16 13:21:00,
2013-04-16 08:22:00,39.9,36.1,30.14,North,357,9.6,11.0,86,0.00,,SCT120,0.08,VWS V14.01,2013-04-16 13:22:00,
2013-04-16 08:23:00,40.1,36.8,30.14,North,9,8.3,8.3,88,0.00,,SCT120,0.08,VWS V14.01,2013-04-16 13:23:00,
2013-04-16 08:25:00,40.1,36.8,30.14,North,0,8.1,9.2,88,0.00,,SCT120,0.08,VWS V14.01,2013-04-16 13:25:00,
2013-04-16 08:27:00,40.1,36.3,30.14,NNW,345,6.3,6.7,86,0.00,,SCT120,0.08,VWS V14.01,2013-04-16 13:27:00,
2013-04-16 08:28:00,40.3,37.6,30.14,North,357,7.2,8.1,90,0.00,,SCT120,0.08,VWS V14.01,2013-04-16 13:28:00,
2013-04-16 08:29:00,40.3,37.6,30.14,North,3,8.1,8.1,90,0.00,,SCT120,0.08,VWS V14.01,2013-04-16 13:29:00,
2013-04-16 08:30:00,40.3,37.6,30.14,North,353,6.3,8.1,90,0.00,,SCT120,0.08,VWS V14.01,2013-04-16 13:30:00,
2013-04-16 08:32:00,40.3,37.6,30.14,NNW,344,5.4,6.7,90,0.00,,SCT120,0.08,VWS V14.01,2013-04-16 13:32:00,
2013-04-16 08:33:00,40.3,38.2,30.14,NNW,335,5.8,5.8,92,0.00,,SCT120,0.08,VWS V14.01,2013-04-16 13:33:00,
2013-04-16 08:34:00,40.3,37.6,30.14,NNE,14,5.8,8.7,90,0.00,,SCT120,0.08,VWS V14.01,2013-04-16 13:34:00,
2013-04-16 08:35:00,40.5,37.2,30.14,NNE,15,8.1,8.7,88,0.00,,SCT120,0.08,VWS V14.01,2013-04-16 13:35:00,
2013-04-16 08:37:00,41.0,37.1,30.14,NNE,29,8.1,8.1,86,0.00,,SCT120,0.08,VWS V14.01,2013-04-16 13:37:00,
2013-04-16 08:39:00,41.4,36.9,30.14,NNE,29,6.3,7.2,84,0.00,,SCT120,0.08,VWS V14.01,2013-04-16 13:39:00,
2013-04-16 08:40:00,41.5,36.5,30.14,NE,43,4.9,7.2,82,0.00,,SCT120,0.08,VWS V14.01,2013-04-16 13:40:00,
2013-04-16 08:41:00,41.5,36.5,30.14,NE,36,4.0,6.3,82,0.00,,SCT120,0.08,VWS V14.01,2013-04-16 13:41:00,
2013-04-16 08:42:00,41.7,36.6,30.14,NNE,19,5.4,5.4,82,0.00,,SCT120,0.08,VWS V14.01,2013-04-16 13:42:00,
2013-04-16 08:44:00,41.7,36.0,30.14,NE,36,5.8,8.3,80,0.00,,SCT120,0.08,VWS V14.01,2013-04-16 13:44:00,
2013-04-16 08:45:00,41.4,35.0,30.14,NNE,21,11.9,12.8,78,0.00,,SCT120,0.08,VWS V14.01,2013-04-16 13:45:00,
2013-04-16 08:46:00,41.2,34.2,30.14,North,10,8.1,13.6,76,0.00,,SCT120,0.08,VWS V14.01,2013-04-16 13:46:00,
2013-04-16 08:48:00,41.0,34.7,30.14,North,7,11.0,11.0,78,0.00,,SCT120,0.08,VWS V14.01,2013-04-16 13:48:00,
2013-04-16 08:50:00,40.8,34.5,30.14,North,11,8.3,8.3,78,0.00,,SCT120,0.08,VWS V14.01,2013-04-16 13:50:00,
2013-04-16 08:51:00,40.6,34.3,30.14,NNE,20,8.7,11.0,78,0.00,,SCT120,0.08,VWS V14.01,2013-04-16 13:51:00,
2013-04-16 08:54:00,40.8,34.5,30.14,North,5,9.6,9.6,78,0.00,,SCT120,0.08,VWS V14.01,2013-04-16 13:54:00,
2013-04-16 08:55:00,41.0,34.7,30.14,NNE,12,14.5,14.5,78,0.00,,SCT120,0.08,VWS V14.01,2013-04-16 13:55:00,
2013-04-16 08:57:00,41.2,34.8,30.14,North,0,8.7,10.1,78,0.00,,SCT120,0.08,VWS V14.01,2013-04-16 13:57:00,
2013-04-16 08:58:00,41.4,35.0,30.14,North,2,8.3,8.7,78,0.00,,SCT120,0.08,VWS V14.01,2013-04-16 13:58:00,
2013-04-16 08:59:00,41.4,35.7,30.14,North,353,8.7,10.1,80,0.00,,SCT120,0.08,VWS V14.01,2013-04-16 13:59:00,
2013-04-16 09:00:00,41.4,35.7,30.14,NNW,340,11.0,11.9,80,0.00,,SCT120,0.08,VWS V14.01,2013-04-16 14:00:00,
2013-04-16 09:03:00,41.5,35.8,30.14,North,4,12.8,12.8,80,0.00,,SCT120,0.08,VWS V14.01,2013-04-16 14:03:00,
2013-04-16 09:06:00,41.5,35.2,30.14,NNE,21,10.1,12.8,78,0.00,,SCT120,0.08,VWS V14.01,2013-04-16 14:06:00,
2013-04-16 09:08:00,41.5,35.2,30.14,North,4,8.7,8.7,78,0.00,,SCT120,0.08,VWS V14.01,2013-04-16 14:08:00,
2013-04-16 09:09:00,41.5,35.2,30.14,North,10,9.6,9.6,78,0.00,,SCT120,0.08,VWS V14.01,2013-04-16 14:09:00,
2013-04-16 09:12:00,41.5,34.5,30.14,NNE,19,12.3,13.2,76,0.00,,SCT120,0.08,VWS V14.01,2013-04-16 14:12:00,
2013-04-16 09:14:00,41.5,34.5,30.14,NNE,18,11.0,11.4,76,0.00,,SCT120,0.08,VWS V14.01,2013-04-16 14:14:00,
2013-04-16 09:15:00,41.7,34.7,30.14,NE,48,5.8,11.0,76,0.00,,SCT120,0.08,VWS V14.01,2013-04-16 14:15:00,
2013-04-16 09:17:00,41.9,34.9,30.14,NNE,32,7.6,8.1,76,0.00,,SCT120,0.08,VWS V14.01,2013-04-16 14:17:00,
2013-04-16 09:18:00,41.9,34.9,30.14,NE,38,5.4,7.6,76,0.00,,SCT120,0.08,VWS V14.01,2013-04-16 14:18:00,
2013-04-16 09:19:00,41.9,34.9,30.14,NE,42,8.3,8.3,76,0.00,,SCT120,0.08,VWS V14.01,2013-04-16 14:19:00,
2013-04-16 09:20:00,41.9,34.9,30.14,NNE,18,8.3,8.3,76,0.00,,SCT120,0.08,VWS V14.01,2013-04-16 14:20:00,
2013-04-16 09:22:00,41.9,34.9,30.14,North,4,8.1,8.1,76,0.00,,SCT120,0.08,VWS V14.01,2013-04-16 14:22:00,
2013-04-16 09:24:00,41.9,34.9,30.17,NNE,21,7.6,7.6,76,0.00,,SCT120,0.08,VWS V14.01,2013-04-16 14:24:00,
2013-04-16 09:25:00,41.9,34.9,30.17,North,11,5.4,5.4,76,0.00,,SCT120,0.08,VWS V14.01,2013-04-16 14:25:00,
2013-04-16 09:29:00,41.5,34.5,30.17,North,8,8.1,8.7,76,0.00,,SCT120,0.08,VWS V14.01,2013-04-16 14:29:00,
2013-04-16 09:30:00,41.5,35.2,30.17,NNE,16,10.1,10.5,78,0.00,,SCT120,0.08,VWS V14.01,2013-04-16 14:30:00,
2013-04-16 09:31:00,41.5,35.2,30.17,NNE,16,10.1,10.5,78,0.00,,SCT120,0.08,VWS V14.01,2013-04-16 14:31:00,
2013-04-16 09:34:00,41.2,34.2,30.17,NE,43,8.1,8.3,76,0.00,,SCT120,0.08,VWS V14.01,2013-04-16 14:34:00,
2013-04-16 09:35:00,41.2,34.8,30.17,NNE,27,7.6,8.3,78,0.00,,SCT120,0.08,VWS V14.01,2013-04-16 14:35:00,
2013-04-16 09:36:00,41.2,34.8,30.17,NE,43,10.1,10.1,78,0.00,,SCT120,0.08,VWS V14.01,2013-04-16 14:36:00,
2013-04-16 09:40:00,41.2,34.8,30.14,North,1,7.6,7.6,78,0.00,,SCT120,0.08,VWS V14.01,2013-04-16 14:40:00,
2013-04-16 09:41:00,41.0,34.7,30.14,North,357,8.7,8.7,78,0.00,,SCT120,0.08,VWS V14.01,2013-04-16 14:41:00,
2013-04-16 09:42:00,41.0,35.3,30.14,North,353,8.3,8.7,80,0.00,,SCT120,0.08,VWS V14.01,2013-04-16 14:42:00,
2013-04-16 09:43:00,41.0,35.9,30.14,NNW,337,7.6,8.1,82,0.00,,SCT120,0.08,VWS V14.01,2013-04-16 14:43:00,
2013-04-16 09:46:00,40.8,37.0,30.14,North,6,5.4,6.3,86,0.00,,SCT120,0.08,VWS V14.01,2013-04-16 14:46:00,
2013-04-16 09:47:00,40.8,37.5,30.14,NNE,16,3.6,3.6,88,0.00,,SCT120,0.08,VWS V14.01,2013-04-16 14:47:00,
2013-04-16 09:48:00,40.8,37.5,30.14,NNE,16,2.7,3.6,88,0.00,,SCT120,0.08,VWS V14.01,2013-04-16 14:48:00,
2013-04-16 09:52:00,40.8,38.7,30.14,NNW,345,2.7,3.6,92,0.00,,SCT120,0.08,VWS V14.01,2013-04-16 14:52:00,
2013-04-16 09:53:00,40.6,38.5,30.14,NNW,345,3.1,3.1,92,0.00,,SCT120,0.08,VWS V14.01,2013-04-16 14:53:00,
2013-04-16 09:54:00,40.6,39.0,30.17,NNW,342,4.9,4.9,94,0.00,,SCT120,0.08,VWS V14.01,2013-04-16 14:54:00,
2013-04-16 09:55:00,40.6,39.6,30.17,North,353,5.4,6.7,96,0.00,,SCT120,0.08,VWS V14.01,2013-04-16 14:55:00,
2013-04-16 09:57:00,40.6,39.6,30.17,North,6,8.3,8.7,96,0.00,,SCT120,0.08,VWS V14.01,2013-04-16 14:57:00,
2013-04-16 09:58:00,40.6,39.0,30.17,North,1,10.1,10.1,94,0.00,,SCT120,0.08,VWS V14.01,2013-04-16 14:58:00,
2013-04-16 09:59:00,40.6,39.0,30.17,North,0,8.3,8.3,94,0.00,,SCT120,0.08,VWS V14.01,2013-04-16 14:59:00,
2013-04-16 10:02:00,40.5,39.4,30.17,NNE,33,4.9,6.7,96,0.00,,SCT120,0.08,VWS V14.01,2013-04-16 15:02:00,
2013-04-16 10:04:00,40.5,39.4,30.17,North,9,4.0,4.0,96,0.00,,SCT120,0.08,VWS V14.01,2013-04-16 15:04:00,
2013-04-16 10:05:00,40.5,38.9,30.17,NE,35,3.6,5.8,94,0.00,,SCT120,0.08,VWS V14.01,2013-04-16 15:05:00,
2013-04-16 10:08:00,40.6,39.6,30.17,NE,36,6.3,7.6,96,0.00,,SCT120,0.08,VWS V14.01,2013-04-16 15:08:00,
2013-04-16 10:09:00,40.8,40.3,30.14,North,0,5.8,6.3,98,0.00,,SCT120,0.08,VWS V14.01,2013-04-16 15:09:00,
2013-04-16 10:10:00,40.8,40.3,30.14,NNE,25,5.4,6.3,98,0.00,,SCT120,0.08,VWS V14.01,2013-04-16 15:10:00,
2013-04-16 10:11:00,41.0,40.0,30.14,NNE,16,5.8,7.6,96,0.00,,SCT120,0.08,VWS V14.01,2013-04-16 15:11:00,
2013-04-16 10:14:00,41.2,40.1,30.14,NNE,17,6.3,8.3,96,0.00,,SCT120,0.08,VWS V14.01,2013-04-16 15:14:00,
2013-04-16 10:15:00,41.2,40.1,30.14,North,4,5.4,7.6,96,0.00,,SCT120,0.08,VWS V14.01,2013-04-16 15:15:00,
2013-04-16 10:17:00,41.9,39.8,30.14,NNE,23,8.3,8.3,92,0.00,,SCT120,0.08,VWS V14.01,2013-04-16 15:17:00,
2013-04-16 10:20:00,42.3,38.4,30.14,NE,45,5.8,7.6,86,0.00,,SCT120,0.08,VWS V14.01,2013-04-16 15:20:00,
2013-04-16 10:21:00,42.3,37.8,30.14,NNE,15,8.7,11.0,84,0.00,,SCT120,0.08,VWS V14.01,2013-04-16 15:21:00,
2013-04-16 10:23:00,42.3,37.2,30.14,NNE,22,5.8,8.3,82,0.00,,SCT120,0.08,VWS V14.01,2013-04-16 15:23:00,
2013-04-16 10:25:00,42.4,37.3,30.14,North,2,10.5,10.5,82,0.00,,SCT120,0.08,VWS V14.01,2013-04-16 15:25:00,
2013-04-16 10:26:00,42.4,37.3,30.14,North,8,12.3,12.3,82,0.00,,SCT120,0.08,VWS V14.01,2013-04-16 15:26:00,
2013-04-16 10:27:00,42.4,37.3,30.14,NNE,13,8.7,12.3,82,0.00,,SCT120,0.08,VWS V14.01,2013-04-16 15:27:00,
2013-04-16 10:29:00,42.8,37.7,30.14,North,9,12.3,13.2,82,0.00,,SCT120,0.08,VWS V14.01,2013-04-16 15:29:00,
2013-04-16 10:30:00,42.8,37.1,30.14,North,5,8.7,9.6,80,0.00,,SCT120,0.08,VWS V14.01,2013-04-16 15:30:00,
2013-04-16 10:31:00,43.0,37.9,30.14,North,353,11.4,11.4,82,0.00,,SCT120,0.08,VWS V14.01,2013-04-16 15:31:00,
2013-04-16 10:32:00,43.2,38.7,30.14,North,10,13.2,13.2,84,0.00,,-RA,0.08,VWS V14.01,2013-04-16 15:32:00,
2013-04-16 10:34:00,43.5,38.4,30.14,North,357,11.4,12.3,82,0.00,,-RA,0.08,VWS V14.01,2013-04-16 15:34:00,
2013-04-16 10:35:00,43.5,39.0,30.14,NNE,16,10.5,12.3,84,0.00,,-RA,0.08,VWS V14.01,2013-04-16 15:35:00,
2013-04-16 10:36:00,43.7,38.6,30.14,NNE,14,12.8,12.8,82,0.00,,-RA,0.08,VWS V14.01,2013-04-16 15:36:00,
2013-04-16 10:38:00,44.2,39.1,30.14,NNE,12,12.3,13.2,82,0.00,,-RA,0.08,VWS V14.01,2013-04-16 15:38:00,
2013-04-16 10:40:00,44.6,37.5,30.17,ENE,58,8.3,10.5,76,0.00,,-RA,0.08,VWS V14.01,2013-04-16 15:40:00,
2013-04-16 10:41:00,45.1,38.7,30.17,NNE,17,10.5,10.5,78,0.00,,-RA,0.08,VWS V14.01,2013-04-16 15:41:00,
2013-04-16 10:42:00,45.5,39.0,30.17,NNE,14,9.6,12.8,78,0.00,,-RA,0.08,VWS V14.01,2013-04-16 15:42:00,
2013-04-16 10:43:00,45.5,39.0,30.17,NNE,12,7.6,10.5,78,0.00,,-RA,0.08,VWS V14.01,2013-04-16 15:43:00,
2013-04-16 10:46:00,45.5,37.7,30.17,NNE,28,10.5,10.5,74,0.00,,-RA,0.08,VWS V14.01,2013-04-16 15:46:00,
2013-04-16 10:47:00,45.5,37.7,30.17,North,353,15.9,15.9,74,0.00,,-RA,0.08,VWS V14.01,2013-04-16 15:47:00,
2013-04-16 10:48:00,45.3,36.1,30.17,NE,47,8.7,15.0,70,0.00,,-RA,0.08,VWS V14.01,2013-04-16 15:48:00,
2013-04-16 10:49:00,45.3,36.1,30.17,NNE,19,8.3,15.0,70,0.00,,-RA,0.08,VWS V14.01,2013-04-16 15:49:00,
2013-04-16 10:51:00,46.4,38.6,30.17,NNE,16,7.6,8.3,74,0.00,,-RA,0.08,VWS V14.01,2013-04-16 15:51:00,
2013-04-16 10:53:00,46.2,35.5,30.17,NE,44,8.7,8.7,66,0.00,,-RA,0.08,VWS V14.01,2013-04-16 15:53:00,
2013-04-16 10:54:00,45.9,35.2,30.14,North,353,11.0,13.2,66,0.00,,-RA,0.08,VWS V14.01,2013-04-16 15:54:00,
2013-04-16 10:55:00,45.9,35.2,30.14,NNE,16,10.5,11.0,66,0.00,,-RA,0.08,VWS V14.01,2013-04-16 15:55:00,
2013-04-16 10:56:00,45.9,33.6,30.14,NNE,14,10.1,13.2,62,0.00,,-RA,0.08,VWS V14.01,2013-04-16 15:56:00,
2013-04-16 10:58:00,45.9,34.4,30.14,North,353,11.0,11.0,64,0.00,,-RA,0.08,VWS V14.01,2013-04-16 15:58:00,
2013-04-16 10:59:00,45.7,33.4,30.14,NNE,15,9.2,12.3,62,0.00,,-RA,0.08,VWS V14.01,2013-04-16 15:59:00,
2013-04-16 11:00:00,45.9,33.6,30.14,North,357,8.7,12.3,62,0.00,,-RA,0.08,VWS V14.01,2013-04-16 16:00:00,
2013-04-16 11:01:00,45.9,34.4,30.14,North,7,11.0,11.0,64,0.00,,OVC110,0.08,VWS V14.01,2013-04-16 16:01:00,
2013-04-16 11:03:00,46.0,33.8,30.14,NNE,32,7.2,7.2,62,0.00,,OVC110,0.08,VWS V14.01,2013-04-16 16:03:00,
2013-04-16 11:05:00,46.8,34.4,30.14,NE,46,8.7,9.6,62,0.00,,OVC110,0.08,VWS V14.01,2013-04-16 16:05:00,
2013-04-16 11:07:00,47.5,35.1,30.14,NNE,19,8.1,8.7,62,0.00,,OVC110,0.08,VWS V14.01,2013-04-16 16:07:00,
2013-04-16 11:09:00,47.7,33.6,30.17,NNE,18,6.3,11.0,58,0.00,,OVC110,0.08,VWS V14.01,2013-04-16 16:09:00,
2013-04-16 11:10:00,48.0,34.8,30.17,NE,40,8.1,8.1,60,0.00,,OVC110,0.08,VWS V14.01,2013-04-16 16:10:00,
2013-04-16 11:12:00,48.4,34.3,30.17,North,9,5.4,8.7,58,0.00,,OVC110,0.08,VWS V14.01,2013-04-16 16:12:00,
2013-04-16 11:13:00,48.6,34.5,30.17,NNE,26,7.6,10.5,58,0.00,,OVC110,0.08,VWS V14.01,2013-04-16 16:13:00,
2013-04-16 11:15:00,48.2,33.3,30.17,NNE,22,5.8,8.7,56,0.00,,OVC110,0.08,VWS V14.01,2013-04-16 16:15:00,
2013-04-16 11:16:00,48.4,32.5,30.17,NNE,16,11.9,11.9,54,0.00,,OVC110,0.08,VWS V14.01,2013-04-16 16:16:00,
2013-04-16 11:17:00,47.8,32.9,30.17,North,0,8.1,13.2,56,0.00,,OVC110,0.08,VWS V14.01,2013-04-16 16:17:00,
2013-04-16 11:18:00,47.5,31.7,30.17,North,357,10.1,11.0,54,0.00,,OVC110,0.08,VWS V14.01,2013-04-16 16:18:00,
2013-04-16 11:19:00,47.5,32.6,30.17,North,7,13.2,13.2,56,0.00,,OVC110,0.08,VWS V14.01,2013-04-16 16:19:00,
2013-04-16 11:20:00,47.1,32.2,30.17,North,5,13.2,13.2,56,0.00,,OVC110,0.08,VWS V14.01,2013-04-16 16:20:00,
2013-04-16 11:22:00,46.9,31.2,30.17,North,11,8.3,8.3,54,0.00,,OVC110,0.08,VWS V14.01,2013-04-16 16:22:00,
2013-04-16 11:23:00,46.6,31.7,30.17,NNE,12,6.3,11.0,56,0.00,,OVC110,0.08,VWS V14.01,2013-04-16 16:23:00,
2013-04-16 11:25:00,46.4,31.6,30.17,NNE,17,8.3,8.3,56,0.00,,OVC110,0.08,VWS V14.01,2013-04-16 16:25:00,
2013-04-16 11:29:00,46.0,32.1,30.17,NNE,21,8.1,8.3,58,0.00,,OVC110,0.08,VWS V14.01,2013-04-16 16:29:00,
2013-04-16 11:30:00,45.7,31.8,30.17,North,5,10.5,10.5,58,0.00,,OVC110,0.08,VWS V14.01,2013-04-16 16:30:00,
2013-04-16 11:31:00,45.9,31.9,30.17,NNE,12,12.8,12.8,58,0.00,,OVC110,0.08,VWS V14.01,2013-04-16 16:31:00,
2013-04-16 11:34:00,45.5,30.7,30.17,NE,35,6.3,6.3,56,0.00,,OVC110,0.08,VWS V14.01,2013-04-16 16:34:00,
2013-04-16 11:36:00,45.5,30.7,30.17,NNE,27,7.6,7.6,56,0.00,,OVC110,0.08,VWS V14.01,2013-04-16 16:36:00,
2013-04-16 11:40:00,45.1,31.3,30.14,North,10,10.5,12.8,58,0.00,,OVC110,0.08,VWS V14.01,2013-04-16 16:40:00,
2013-04-16 11:41:00,45.1,31.3,30.14,ENE,71,11.9,12.3,58,0.00,,OVC110,0.08,VWS V14.01,2013-04-16 16:41:00,
2013-04-16 11:42:00,45.1,30.4,30.14,North,0,11.0,13.2,56,0.00,,OVC110,0.08,VWS V14.01,2013-04-16 16:42:00,
2013-04-16 11:46:00,46.4,31.6,30.14,NNE,14,10.1,11.0,56,0.00,,OVC110,0.08,VWS V14.01,2013-04-16 16:46:00,
2013-04-16 11:47:00,46.6,32.6,30.14,NNE,13,10.1,10.1,58,0.00,,OVC110,0.08,VWS V14.01,2013-04-16 16:47:00,
2013-04-16 11:48:00,47.1,33.1,30.14,North,357,11.0,13.2,58,0.00,,OVC110,0.08,VWS V14.01,2013-04-16 16:48:00,
2013-04-16 11:52:00,48.2,33.3,30.14,NE,38,12.8,13.2,56,0.00,,OVC110,0.08,VWS V14.01,2013-04-16 16:52:00,
2013-04-16 11:53:00,48.2,33.3,30.14,NNE,18,6.3,12.3,56,0.00,,OVC110,0.08,VWS V14.01,2013-04-16 16:53:00,
2013-04-16 11:54:00,48.2,32.3,30.17,NNE,23,11.9,15.4,54,0.00,,OVC110,0.08,VWS V14.01,2013-04-16 16:54:00,
2013-04-16 11:57:00,48.0,32.2,30.17,NE,37,6.3,6.3,54,0.00,,OVC110,0.08,VWS V14.01,2013-04-16 16:57:00,
2013-04-16 11:58:00,48.0,32.2,30.17,NE,37,8.3,8.3,54,0.00,,OVC110,0.08,VWS V14.01,2013-04-16 16:58:00,
2013-04-16 11:59:00,48.0,33.1,30.17,ENE,60,7.6,10.1,56,0.00,,OVC110,0.08,VWS V14.01,2013-04-16 16:59:00,
2013-04-16 12:00:00,48.2,32.3,30.17,ENE,69,8.3,10.1,54,0.00,,OVC110,0.08,VWS V14.01,2013-04-16 17:00:00,
2013-04-16 12:01:00,48.2,32.3,30.17,NNE,12,10.5,10.5,54,0.00,,OVC110,0.08,VWS V14.01,2013-04-16 17:01:00,
2013-04-16 12:03:00,48.4,32.5,30.17,NNE,33,8.1,10.5,54,0.00,,-RA,0.08,VWS V14.01,2013-04-16 17:03:00,
2013-04-16 12:05:00,49.1,33.2,30.17,NE,36,9.6,9.6,54,0.00,,-RA,0.08,VWS V14.01,2013-04-16 17:05:00,
2013-04-16 12:06:00,48.9,33.0,30.17,NNE,18,4.0,8.7,54,0.00,,-RA,0.08,VWS V14.01,2013-04-16 17:06:00,
2013-04-16 12:08:00,49.6,33.7,30.17,NE,38,5.8,8.1,54,0.00,,-RA,0.08,VWS V14.01,2013-04-16 17:08:00,
2013-04-16 12:09:00,49.8,33.9,30.17,North,0,4.0,8.1,54,0.00,,-RA,0.08,VWS V14.01,2013-04-16 17:09:00,
2013-04-16 12:10:00,50.2,33.2,30.17,NNE,12,10.1,10.1,52,0.00,,-RA,0.08,VWS V14.01,2013-04-16 17:10:00,
2013-04-16 12:11:00,50.2,33.2,30.17,NE,38,6.3,6.7,52,0.00,,-RA,0.08,VWS V14.01,2013-04-16 17:11:00,
2013-04-16 12:12:00,50.5,33.6,30.17,NE,45,5.8,8.7,52,0.00,,-RA,0.08,VWS V14.01,2013-04-16 17:12:00,
2013-04-16 12:13:00,50.9,33.9,30.17,NNE,29,3.6,6.3,52,0.00,,-RA,0.08,VWS V14.01,2013-04-16 17:13:00,
2013-04-16 12:14:00,51.1,34.1,30.17,NNE,14,6.3,11.0,52,0.00,,-RA,0.08,VWS V14.01,2013-04-16 17:14:00,
2013-04-16 12:15:00,51.3,32.3,30.17,NE,41,7.6,8.7,48,0.00,,-RA,0.08,VWS V14.01,2013-04-16 17:15:00,
2013-04-16 12:16:00,51.6,32.6,30.17,NNE,16,6.7,6.7,48,0.00,,-RA,0.08,VWS V14.01,2013-04-16 17:16:00,
2013-04-16 12:18:00,52.0,34.9,30.17,North,3,9.6,9.6,52,0.00,,-RA,0.08,VWS V14.01,2013-04-16 17:18:00,
2013-04-16 12:19:00,51.6,32.6,30.17,ENE,71,6.3,6.3,48,0.00,,-RA,0.08,VWS V14.01,2013-04-16 17:19:00,
2013-04-16 12:20:00,51.6,32.6,30.17,North,11,3.6,6.3,48,0.00,,-RA,0.08,VWS V14.01,2013-04-16 17:20:00,
2013-04-16 12:22:00,51.6,32.6,30.17,NNE,23,10.1,10.1,48,0.00,,-RA,0.08,VWS V14.01,2013-04-16 17:22:00,
2013-04-16 12:23:00,51.6,32.6,30.17,NE,42,7.6,10.1,48,0.00,,-RA,0.08,VWS V14.01,2013-04-16 17:23:00,
2013-04-16 12:25:00,51.4,29.1,30.17,North,357,8.7,8.7,42,0.00,,-RA,0.08,VWS V14.01,2013-04-16 17:25:00,
2013-04-16 12:26:00,51.6,29.3,30.17,NE,52,7.6,10.1,42,0.00,,-RA,0.08,VWS V14.01,2013-04-16 17:26:00,
2013-04-16 12:27:00,51.4,29.1,30.17,North,2,11.0,11.0,42,0.00,,-RA,0.08,VWS V14.01,2013-04-16 17:27:00,
2013-04-16 12:28:00,51.4,29.1,30.17,NE,53,6.3,11.0,42,0.00,,-RA,0.08,VWS V14.01,2013-04-16 17:28:00,
2013-04-16 12:30:00,50.7,31.8,30.17,NE,39,10.1,11.0,48,0.00,,-RA,0.08,VWS V14.01,2013-04-16 17:30:00,
2013-04-16 12:31:00,50.7,31.8,30.17,NE,43,10.5,11.0,48,0.00,,-RA,0.08,VWS V14.01,2013-04-16 17:31:00,
2013-04-16 12:32:00,50.5,28.3,30.17,NE,45,7.6,11.0,42,0.00,,-RA,0.08,VWS V14.01,2013-04-16 17:32:00,
2013-04-16 12:33:00,49.6,30.8,30.17,North,6,15.4,15.4,48,0.00,,-RA,0.08,VWS V14.01,2013-04-16 17:33:00,
2013-04-16 12:36:00,49.1,30.3,30.17,NNE,18,10.5,14.1,48,0.00,,-RA,0.08,VWS V14.01,2013-04-16 17:36:00,
2013-04-16 12:37:00,48.9,30.1,30.17,NNE,28,11.0,11.0,48,0.00,,-RA,0.08,VWS V14.01,2013-04-16 17:37:00,
2013-04-16 12:39:00,48.4,29.6,30.14,NNE,18,16.8,17.4,48,0.00,,-RA,0.08,VWS V14.01,2013-04-16 17:39:00,
2013-04-16 12:41:00,48.0,29.3,30.14,NNE,29,13.6,14.5,48,0.00,,-RA,0.08,VWS V14.01,2013-04-16 17:41:00,
2013-04-16 12:43:00,48.4,31.6,30.14,NNE,24,9.6,9.6,52,0.00,,-RA,0.08,VWS V14.01,2013-04-16 17:43:00,
2013-04-16 12:44:00,48.6,31.8,30.14,NE,46,12.3,15.0,52,0.00,,-RA,0.08,VWS V14.01,2013-04-16 17:44:00,
2013-04-16 12:46:00,48.4,31.6,30.14,NNE,15,16.8,17.0,52,0.00,,-RA,0.08,VWS V14.01,2013-04-16 17:46:00,
2013-04-16 12:47:00,48.6,31.8,30.14,NNE,25,10.5,11.0,52,0.00,,-RA,0.08,VWS V14.01,2013-04-16 17:47:00,
2013-04-16 12:48:00,48.7,31.9,30.14,North,353,8.7,15.0,52,0.00,,-RA,0.08,VWS V14.01,2013-04-16 17:48:00,
2013-04-16 12:50:00,48.9,33.0,30.14,NNE,14,16.8,16.8,54,0.00,,-RA,0.08,VWS V14.01,2013-04-16 17:50:00,
2013-04-16 12:51:00,48.7,31.9,30.14,NNE,15,15.0,15.0,52,0.00,,-RA,0.08,VWS V14.01,2013-04-16 17:51:00,
2013-04-16 12:52:00,48.6,31.8,30.14,NE,38,10.1,15.0,52,0.00,,-RA,0.08,VWS V14.01,2013-04-16 17:52:00,
2013-04-16 12:54:00,48.9,32.1,30.14,NE,38,8.1,10.5,52,0.00,,-RA,0.08,VWS V14.01,2013-04-16 17:54:00,
2013-04-16 12:55:00,49.1,30.3,30.14,North,7,8.7,12.3,48,0.00,,-RA,0.08,VWS V14.01,2013-04-16 17:55:00,
2013-04-16 12:56:00,48.7,29.9,30.14,NNE,23,12.8,13.2,48,0.00,,-RA,0.08,VWS V14.01,2013-04-16 17:56:00,
2013-04-16 12:58:00,48.7,31.9,30.14,NNE,19,8.7,12.3,52,0.00,,-RA,0.08,VWS V14.01,2013-04-16 17:58:00,
2013-04-16 13:00:00,49.1,30.3,30.14,NE,43,5.8,12.8,48,0.00,,-RA,0.08,VWS V14.01,2013-04-16 18:00:00,
2013-04-16 13:01:00,49.3,32.4,30.14,NNE,12,5.8,7.6,52,0.00,,-RA,0.08,VWS V14.01,2013-04-16 18:01:00,
2013-04-16 13:03:00,49.3,30.4,30.14,NE,47,7.6,10.5,48,0.00,,OVC060,0.08,VWS V14.01,2013-04-16 18:03:00,
2013-04-16 13:04:00,49.8,32.9,30.14,NNE,21,6.3,6.3,52,0.00,,OVC060,0.08,VWS V14.01,2013-04-16 18:04:00,
2013-04-16 13:06:00,49.8,30.9,30.14,NNE,18,12.3,12.3,48,0.00,,OVC060,0.08,VWS V14.01,2013-04-16 18:06:00,
2013-04-16 13:07:00,49.5,30.6,30.14,NNE,28,10.5,10.5,48,0.00,,OVC060,0.08,VWS V14.01,2013-04-16 18:07:00,
2013-04-16 13:08:00,49.3,30.4,30.14,NE,36,8.3,8.3,48,0.00,,OVC060,0.08,VWS V14.01,2013-04-16 18:08:00,
2013-04-16 13:09:00,49.1,30.3,30.14,NE,43,11.0,11.4,48,0.00,,OVC060,0.08,VWS V14.01,2013-04-16 18:09:00,
2013-04-16 13:11:00,48.9,30.1,30.14,NE,40,11.0,11.0,48,0.00,,OVC060,0.08,VWS V14.01,2013-04-16 18:11:00,
2013-04-16 13:12:00,48.9,32.1,30.14,NE,47,8.3,11.0,52,0.00,,OVC060,0.08,VWS V14.01,2013-04-16 18:12:00,
2013-04-16 13:13:00,49.1,32.2,30.14,NE,39,10.5,11.0,52,0.00,,OVC060,0.08,VWS V14.01,2013-04-16 18:13:00,
2013-04-16 13:14:00,49.1,32.2,30.14,NE,55,10.1,11.0,52,0.00,,OVC060,0.08,VWS V14.01,2013-04-16 18:14:00,
2013-04-16 13:16:00,49.3,32.4,30.14,NNE,12,5.8,8.1,52,0.00,,OVC060,0.08,VWS V14.01,2013-04-16 18:16:00,
2013-04-16 13:17:00,49.3,30.4,30.14,NE,49,8.7,10.5,48,0.00,,OVC060,0.08,VWS V14.01,2013-04-16 18:17:00,
2013-04-16 13:18:00,49.5,30.6,30.14,NNE,24,6.3,8.7,48,0.00,,OVC060,0.08,VWS V14.01,2013-04-16 18:18:00,
2013-04-16 13:19:00,49.6,30.8,30.14,NE,41,6.3,8.3,48,0.00,,OVC060,0.08,VWS V14.01,2013-04-16 18:19:00,
2013-04-16 13:20:00,49.6,30.8,30.14,NNE,29,8.3,10.5,48,0.00,,OVC060,0.08,VWS V14.01,2013-04-16 18:20:00,
2013-04-16 13:22:00,50.0,31.1,30.14,NE,52,3.6,6.3,48,0.00,,OVC060,0.08,VWS V14.01,2013-04-16 18:22:00,
2013-04-16 13:23:00,50.2,31.3,30.14,NE,47,6.3,6.3,48,0.00,,OVC060,0.08,VWS V14.01,2013-04-16 18:23:00,
2013-04-16 13:25:00,50.5,31.6,30.14,North,5,6.3,10.1,48,0.00,,OVC060,0.08,VWS V14.01,2013-04-16 18:25:00,
2013-04-16 13:28:00,50.9,31.9,30.14,NNE,21,8.3,8.3,48,0.00,,OVC060,0.08,VWS V14.01,2013-04-16 18:28:00,
2013-04-16 13:30:00,51.1,28.8,30.14,North,8,10.5,13.2,42,0.00,,OVC060,0.08,VWS V14.01,2013-04-16 18:30:00,
2013-04-16 13:33:00,51.6,29.3,30.14,NE,38,13.2,13.2,42,0.00,,OVC060,0.08,VWS V14.01,2013-04-16 18:33:00,
2013-04-16 13:34:00,51.6,29.3,30.14,NE,52,7.6,11.4,42,0.00,,OVC060,0.08,VWS V14.01,2013-04-16 18:34:00,
2013-04-16 13:35:00,52.2,29.8,30.14,NE,38,8.1,12.3,42,0.00,,OVC060,0.08,VWS V14.01,2013-04-16 18:35:00,
2013-04-16 13:36:00,52.2,29.8,30.14,North,10,5.8,8.7,42,0.00,,OVC060,0.08,VWS V14.01,2013-04-16 18:36:00,
2013-04-16 13:39:00,52.3,30.0,30.14,North,2,8.7,14.1,42,0.00,,OVC060,0.08,VWS V14.01,2013-04-16 18:39:00,
2013-04-16 13:40:00,52.5,30.1,30.14,NNE,14,8.7,10.1,42,0.00,,OVC060,0.08,VWS V14.01,2013-04-16 18:40:00,
2013-04-16 13:41:00,52.5,30.1,30.14,NE,48,5.8,11.0,42,0.00,,OVC060,0.08,VWS V14.01,2013-04-16 18:41:00,
2013-04-16 13:44:00,51.6,29.3,30.14,North,9,8.7,15.0,42,0.00,,OVC060,0.08,VWS V14.01,2013-04-16 18:44:00,
2013-04-16 13:45:00,51.6,29.3,30.14,North,11,10.1,10.1,42,0.00,,OVC060,0.08,VWS V14.01,2013-04-16 18:45:00,
2013-04-16 13:46:00,51.3,29.0,30.14,North,0,15.0,15.0,42,0.00,,OVC060,0.08,VWS V14.01,2013-04-16 18:46:00,
2013-04-16 13:49:00,51.1,28.8,30.14,NNE,24,5.4,10.5,42,0.00,,OVC060,0.08,VWS V14.01,2013-04-16 18:49:00,
2013-04-16 13:51:00,51.1,28.8,30.14,NNE,23,10.1,10.5,42,0.00,,OVC060,0.08,VWS V14.01,2013-04-16 18:51:00,
2013-04-16 13:52:00,51.1,28.8,30.14,NE,37,8.7,10.5,42,0.00,,OVC060,0.08,VWS V14.01,2013-04-16 18:52:00,
2013-04-16 13:53:00,51.3,29.0,30.14,NNE,31,8.1,8.1,42,0.00,,OVC060,0.08,VWS V14.01,2013-04-16 18:53:00,
2013-04-16 13:54:00,51.4,32.4,30.14,NNE,16,6.3,6.3,48,0.00,,OVC060,0.08,VWS V14.01,2013-04-16 18:54:00,
2013-04-16 13:55:00,51.4,32.4,30.14,NNE,14,12.3,12.3,48,0.00,,OVC060,0.08,VWS V14.01,2013-04-16 18:55:00,
2013-04-16 13:56:00,51.3,29.0,30.14,NE,52,8.1,10.5,42,0.00,,OVC060,0.08,VWS V14.01,2013-04-16 18:56:00,
2013-04-16 13:57:00,51.8,29.5,30.14,NNE,32,5.8,8.1,42,0.00,,OVC060,0.08,VWS V14.01,2013-04-16 18:57:00,
2013-04-16 14:00:00,51.6,29.3,30.14,North,9,17.9,17.9,42,0.00,,OVC060,0.08,VWS V14.01,2013-04-16 19:00:00,
2013-04-16 14:03:00,50.9,26.2,30.14,ENE,63,9.6,11.0,38,0.00,,OVC055,0.08,VWS V14.01,2013-04-16 19:03:00,
2013-04-16 14:04:00,51.1,28.8,30.14,NNE,31,7.6,11.0,42,0.00,,OVC055,0.08,VWS V14.01,2013-04-16 19:04:00,
2013-04-16 14:05:00,50.5,28.3,30.14,NNE,26,8.1,8.7,42,0.00,,OVC055,0.08,VWS V14.01,2013-04-16 19:05:00,
2013-04-16 14:07:00,50.4,28.2,30.14,NE,46,4.0,7.6,42,0.00,,OVC055,0.08,VWS V14.01,2013-04-16 19:07:00,
2013-04-16 14:09:00,50.4,28.2,30.14,NW,312,8.3,8.3,42,0.00,,OVC055,0.08,VWS V14.01,2013-04-16 19:09:00,
2013-04-16 14:11:00,50.2,28.0,30.14,North,7,8.3,12.8,42,0.00,,OVC055,0.08,VWS V14.01,2013-04-16 19:11:00,
2013-04-16 14:12:00,50.2,28.0,30.14,NNE,32,11.0,11.0,42,0.00,,OVC055,0.08,VWS V14.01,2013-04-16 19:12:00,
2013-04-16 14:14:00,50.2,28.0,30.14,NNE,18,10.5,10.5,42,0.00,,OVC055,0.08,VWS V14.01,2013-04-16 19:14:00,
2013-04-16 14:16:00,50.2,31.3,30.14,NNE,12,5.4,10.5,48,0.00,,OVC055,0.08,VWS V14.01,2013-04-16 19:16:00,
2013-04-16 14:17:00,50.2,28.0,30.14,NNE,17,11.0,11.0,42,0.00,,OVC055,0.08,VWS V14.01,2013-04-16 19:17:00,
2013-04-16 14:18:00,50.2,28.0,30.14,North,2,10.1,11.0,42,0.00,,OVC055,0.08,VWS V14.01,2013-04-16 19:18:00,
2013-04-16 14:19:00,50.0,27.8,30.14,North,3,8.1,8.1,42,0.00,,OVC055,0.08,VWS V14.01,2013-04-16 19:19:00,
2013-04-16 14:22:00,49.6,27.5,30.14,North,10,11.0,11.0,42,0.00,,OVC055,0.08,VWS V14.01,2013-04-16 19:22:00,
2013-04-16 14:23:00,49.8,27.7,30.14,NNE,21,5.8,9.2,42,0.00,,OVC055,0.08,VWS V14.01,2013-04-16 19:23:00,
2013-04-16 14:24:00,49.6,30.8,30.14,NNE,19,8.3,10.5,48,0.00,,OVC055,0.08,VWS V14.01,2013-04-16 19:24:00,
2013-04-16 14:27:00,49.6,30.8,30.14,NNE,25,13.2,13.6,48,0.00,,OVC055,0.08,VWS V14.01,2013-04-16 19:27:00,
2013-04-16 14:29:00,49.6,27.5,30.14,NNE,31,14.5,14.5,42,0.00,,OVC055,0.08,VWS V14.01,2013-04-16 19:29:00,
2013-04-16 14:30:00,49.8,27.7,30.14,North,10,11.0,11.0,42,0.00,,OVC055,0.08,VWS V14.01,2013-04-16 19:30:00,
2013-04-16 14:32:00,49.6,27.5,30.14,NNE,29,11.0,11.0,42,0.00,,OVC055,0.08,VWS V14.01,2013-04-16 19:32:00,
2013-04-16 14:33:00,49.6,27.5,30.14,NNE,12,6.3,11.0,42,0.00,,OVC055,0.08,VWS V14.01,2013-04-16 19:33:00,
2013-04-16 14:35:00,49.5,30.6,30.14,North,357,8.7,12.3,48,0.00,,OVC055,0.08,VWS V14.01,2013-04-16 19:35:00,
2013-04-16 14:36:00,49.5,27.3,30.14,North,6,8.7,8.7,42,0.00,,OVC055,0.08,VWS V14.01,2013-04-16 19:36:00,
2013-04-16 14:37:00,49.6,30.8,30.14,NNE,20,8.1,8.3,48,0.00,,OVC055,0.08,VWS V14.01,2013-04-16 19:37:00,
2013-04-16 14:38:00,49.6,30.8,30.14,North,10,5.4,12.3,48,0.00,,OVC055,0.08,VWS V14.01,2013-04-16 19:38:00,
2013-04-16 14:39:00,49.5,30.6,30.14,NNE,20,13.2,14.1,48,0.00,,OVC055,0.08,VWS V14.01,2013-04-16 19:39:00,
2013-04-16 14:41:00,49.3,27.2,30.14,NNE,20,8.7,11.0,42,0.00,,OVC055,0.08,VWS V14.01,2013-04-16 19:41:00,
2013-04-16 14:42:00,49.3,27.2,30.14,NNE,20,8.7,11.0,42,0.00,,OVC055,0.08,VWS V14.01,2013-04-16 19:42:00,
2013-04-16 14:43:00,49.1,27.0,30.14,NNW,331,10.1,11.4,42,0.00,,OVC055,0.08,VWS V14.01,2013-04-16 19:43:00,
2013-04-16 14:44:00,49.3,27.2,30.14,NNE,24,10.5,10.5,42,0.00,,OVC055,0.08,VWS V14.01,2013-04-16 19:44:00,
2013-04-16 14:47:00,49.5,27.3,30.14,NNE,25,6.3,8.1,42,0.00,,OVC055,0.08,VWS V14.01,2013-04-16 19:47:00,
2013-04-16 14:48:00,49.6,27.5,30.14,NE,34,8.1,8.7,42,0.00,,OVC055,0.08,VWS V14.01,2013-04-16 19:48:00,
2013-04-16 14:49:00,49.8,27.7,30.14,NE,41,5.4,5.4,42,0.00,,OVC055,0.08,VWS V14.01,2013-04-16 19:49:00,
2013-04-16 14:52:00,50.4,28.2,30.14,NNE,23,12.8,12.8,42,0.00,,OVC055,0.08,VWS V14.01,2013-04-16 19:52:00,
2013-04-16 14:53:00,50.4,28.2,30.14,NNE,19,12.3,12.8,42,0.00,,OVC055,0.08,VWS V14.01,2013-04-16 19:53:00,
2013-04-16 14:54:00,50.5,28.3,30.14,NNE,21,8.1,10.5,42,0.00,,OVC055,0.08,VWS V14.01,2013-04-16 19:54:00,
2013-04-16 14:57:00,51.4,29.1,30.14,NE,54,5.4,8.3,42,0.00,,OVC055,0.08,VWS V14.01,2013-04-16 19:57:00,
2013-04-16 14:58:00,51.6,29.3,30.14,NE,34,7.6,10.1,42,0.00,,OVC055,0.08,VWS V14.01,2013-04-16 19:58:00,
2013-04-16 14:59:00,51.6,29.3,30.14,ENE,62,10.5,10.5,42,0.00,,OVC055,0.08,VWS V14.01,2013-04-16 19:59:00,
2013-04-16 15:00:00,51.8,29.5,30.14,North,0,6.3,8.3,42,0.00,,OVC055,0.08,VWS V14.01,2013-04-16 20:00:00,
2013-04-16 15:03:00,52.0,29.6,30.14,ENE,64,4.0,7.6,42,0.00,,OVC050,0.08,VWS V14.01,2013-04-16 20:03:00,
2013-04-16 15:04:00,51.8,29.5,30.14,North,9,8.7,8.7,42,0.00,,OVC050,0.08,VWS V14.01,2013-04-16 20:04:00,
2013-04-16 15:05:00,51.6,29.3,30.14,NNE,18,8.1,12.8,42,0.00,,OVC050,0.08,VWS V14.01,2013-04-16 20:05:00,
2013-04-16 15:06:00,51.8,29.5,30.14,North,7,11.0,11.4,42,0.00,,OVC050,0.08,VWS V14.01,2013-04-16 20:06:00,
2013-04-16 15:08:00,52.0,29.6,30.14,North,10,8.3,10.5,42,0.00,,OVC050,0.08,VWS V14.01,2013-04-16 20:08:00,
2013-04-16 15:10:00,52.0,29.6,30.14,NNE,18,8.3,11.0,42,0.00,,OVC050,0.08,VWS V14.01,2013-04-16 20:10:00,
2013-04-16 15:11:00,52.0,29.6,30.14,NE,34,7.6,7.6,42,0.00,,OVC050,0.08,VWS V14.01,2013-04-16 20:11:00,
2013-04-16 15:13:00,52.2,29.8,30.14,NE,55,6.7,8.3,42,0.00,,OVC050,0.08,VWS V14.01,2013-04-16 20:13:00,
2013-04-16 15:15:00,51.8,25.7,30.14,NE,35,8.3,15.4,36,0.00,,OVC050,0.08,VWS V14.01,2013-04-16 20:15:00,
2013-04-16 15:17:00,51.1,26.4,30.14,NNE,12,11.4,15.4,38,0.00,,OVC050,0.08,VWS V14.01,2013-04-16 20:17:00,
2013-04-16 15:18:00,51.3,26.5,30.14,NE,40,7.6,15.4,38,0.00,,OVC050,0.08,VWS V14.01,2013-04-16 20:18:00,
2013-04-16 15:19:00,50.9,28.6,30.14,North,7,6.3,8.3,42,0.00,,OVC050,0.08,VWS V14.01,2013-04-16 20:19:00,
2013-04-16 15:20:00,51.1,26.4,30.14,North,7,11.0,14.5,38,0.00,,OVC050,0.08,VWS V14.01,2013-04-16 20:20:00,
2013-04-16 15:22:00,51.3,29.0,30.14,NNE,30,10.5,10.5,42,0.00,,OVC050,0.08,VWS V14.01,2013-04-16 20:22:00,
2013-04-16 15:23:00,50.9,28.6,30.14,NNE,22,10.1,10.1,42,0.00,,OVC050,0.08,VWS V14.01,2013-04-16 20:23:00,
2013-04-16 15:24:00,51.1,28.8,30.14,North,357,10.1,10.1,42,0.00,,OVC050,0.08,VWS V14.01,2013-04-16 20:24:00,
2013-04-16 15:26:00,51.3,29.0,30.14,NNE,31,11.4,11.4,42,0.00,,OVC050,0.08,VWS V14.01,2013-04-16 20:26:00,
2013-04-16 15:27:00,51.6,29.3,30.14,NE,35,5.8,9.2,42,0.00,,OVC050,0.08,VWS V14.01,2013-04-16 20:27:00,
2013-04-16 15:28:00,52.0,29.6,30.14,NE,45,12.8,12.8,42,0.00,,OVC050,0.08,VWS V14.01,2013-04-16 20:28:00,
2013-04-16 15:30:00,52.7,30.3,30.14,NNE,32,6.3,11.0,42,0.00,,OVC050,0.08,VWS V14.01,2013-04-16 20:30:00,
2013-04-16 15:31:00,52.9,26.7,30.14,NNE,22,8.7,12.8,36,0.00,,OVC050,0.08,VWS V14.01,2013-04-16 20:31:00,
2013-04-16 15:32:00,52.9,26.7,30.14,ENE,59,11.4,14.1,36,0.00,,OVC050,0.08,VWS V14.01,2013-04-16 20:32:00,
2013-04-16 15:34:00,53.2,30.8,30.14,North,0,11.0,11.0,42,0.00,,OVC050,0.08,VWS V14.01,2013-04-16 20:34:00,
2013-04-16 15:35:00,53.2,30.8,30.14,NNE,19,8.3,8.3,42,0.00,,OVC050,0.08,VWS V14.01,2013-04-16 20:35:00,
2013-04-16 15:36:00,53.2,30.8,30.14,North,11,5.8,9.6,42,0.00,,OVC050,0.08,VWS V14.01,2013-04-16 20:36:00,
2013-04-16 15:37:00,53.4,30.9,30.14,NNE,24,5.4,9.6,42,0.00,,OVC050,0.08,VWS V14.01,2013-04-16 20:37:00,
2013-04-16 15:40:00,52.9,26.7,30.14,NNE,19,13.2,13.2,36,0.00,,OVC050,0.08,VWS V14.01,2013-04-16 20:40:00,
2013-04-16 15:41:00,53.1,30.6,30.14,North,10,8.3,10.5,42,0.00,,OVC050,0.08,VWS V14.01,2013-04-16 20:41:00,
2013-04-16 15:42:00,53.1,30.6,30.14,North,8,5.4,8.3,42,0.00,,OVC050,0.08,VWS V14.01,2013-04-16 20:42:00,
2013-04-16 15:43:00,52.7,26.5,30.14,NNE,15,8.1,11.9,36,0.00,,OVC050,0.08,VWS V14.01,2013-04-16 20:43:00,
2013-04-16 15:45:00,52.7,30.3,30.14,NNE,29,8.3,11.0,42,0.00,,OVC050,0.08,VWS V14.01,2013-04-16 20:45:00,
2013-04-16 15:46:00,52.7,30.3,30.14,NE,48,5.8,12.3,42,0.00,,OVC050,0.08,VWS V14.01,2013-04-16 20:46:00,
2013-04-16 15:48:00,52.7,30.3,30.14,NE,38,4.0,10.1,42,0.00,,OVC050,0.08,VWS V14.01,2013-04-16 20:48:00,
2013-04-16 15:49:00,52.7,30.3,30.14,NE,55,4.0,4.0,42,0.00,,OVC050,0.08,VWS V14.01,2013-04-16 20:49:00,
2013-04-16 15:50:00,52.7,30.3,30.14,NE,53,5.8,5.8,42,0.00,,OVC050,0.08,VWS V14.01,2013-04-16 20:50:00,
2013-04-16 15:53:00,52.7,30.3,30.14,NNE,19,6.3,8.7,42,0.00,,OVC050,0.08,VWS V14.01,2013-04-16 20:53:00,
2013-04-16 15:54:00,52.5,30.1,30.14,NNE,21,8.3,8.3,42,0.00,,OVC050,0.08,VWS V14.01,2013-04-16 20:54:00,
2013-04-16 15:55:00,52.3,30.0,30.14,North,357,8.7,8.7,42,0.00,,OVC050,0.08,VWS V14.01,2013-04-16 20:55:00,
2013-04-16 15:56:00,52.3,30.0,30.14,NNE,18,7.6,8.7,42,0.00,,OVC050,0.08,VWS V14.01,2013-04-16 20:56:00,
2013-04-16 15:58:00,52.0,29.6,30.14,NE,47,5.8,8.3,42,0.00,,OVC050,0.08,VWS V14.01,2013-04-16 20:58:00,
2013-04-16 15:59:00,51.8,29.5,30.14,NNE,19,7.6,10.1,42,0.00,,OVC050,0.08,VWS V14.01,2013-04-16 20:59:00,
2013-04-16 16:01:00,51.3,26.5,30.14,NE,46,9.2,10.5,38,0.00,,OVC050,0.08,VWS V14.01,2013-04-16 21:01:00,
2013-04-16 16:03:00,50.5,28.3,30.14,NNE,25,10.1,11.0,42,0.00,,OVC044,0.08,VWS V14.01,2013-04-16 21:03:00,
2013-04-16 16:04:00,50.5,28.3,30.14,NNE,26,6.3,11.0,42,0.00,,OVC044,0.08,VWS V14.01,2013-04-16 21:04:00,
2013-04-16 16:05:00,50.4,28.2,30.14,NNE,22,11.0,11.0,42,0.00,,OVC044,0.08,VWS V14.01,2013-04-16 21:05:00,
2013-04-16 16:08:00,50.2,28.0,30.14,NE,44,8.7,8.7,42,0.00,,OVC044,0.08,VWS V14.01,2013-04-16 21:08:00,
2013-04-16 16:09:00,50.2,28.0,30.14,NE,51,8.7,11.4,42,0.00,,OVC044,0.08,VWS V14.01,2013-04-16 21:09:00,
2013-04-16 16:10:00,50.2,28.0,30.14,NNE,15,6.7,8.7,42,0.00,,OVC044,0.08,VWS V14.01,2013-04-16 21:10:00,
2013-04-16 16:13:00,50.0,27.8,30.14,NNE,17,6.3,11.0,42,0.00,,OVC044,0.08,VWS V14.01,2013-04-16 21:13:00,
2013-04-16 16:15:00,50.0,27.8,30.14,NE,50,8.3,9.2,42,0.00,,OVC044,0.08,VWS V14.01,2013-04-16 21:15:00,
2013-04-16 16:16:00,50.0,31.1,30.14,NE,42,8.3,8.3,48,0.00,,OVC044,0.08,VWS V14.01,2013-04-16 21:16:00,
2013-04-16 16:18:00,50.0,31.1,30.14,ENE,61,5.8,5.8,48,0.00,,OVC044,0.08,VWS V14.01,2013-04-16 21:18:00,
2013-04-16 16:20:00,50.2,31.3,30.14,NNE,32,4.9,6.7,48,0.00,,OVC044,0.08,VWS V14.01,2013-04-16 21:20:00,
2013-04-16 16:22:00,50.2,31.3,30.14,ENE,63,4.0,5.4,48,0.00,,OVC044,0.08,VWS V14.01,2013-04-16 21:22:00,
2013-04-16 16:23:00,50.2,31.3,30.14,NE,41,5.4,5.4,48,0.00,,OVC044,0.08,VWS V14.01,2013-04-16 21:23:00,
2013-04-16 16:25:00,50.4,31.4,30.14,NE,34,5.4,5.8,48,0.00,,OVC044,0.08,VWS V14.01,2013-04-16 21:25:00,
2013-04-16 16:27:00,50.4,31.4,30.14,NNE,31,3.1,4.0,48,0.00,,OVC044,0.08,VWS V14.01,2013-04-16 21:27:00,
2013-04-16 16:28:00,50.4,31.4,30.14,NNE,33,5.4,5.8,48,0.00,,OVC044,0.08,VWS V14.01,2013-04-16 21:28:00,
2013-04-16 16:30:00,50.5,31.6,30.14,NNE,23,8.7,10.5,48,0.00,,OVC044,0.08,VWS V14.01,2013-04-16 21:30:00,
2013-04-16 16:32:00,50.5,31.6,30.14,NNE,25,7.6,7.6,48,0.00,,OVC044,0.08,VWS V14.01,2013-04-16 21:32:00,
2013-04-16 16:33:00,50.5,31.6,30.14,NE,43,8.1,11.0,48,0.00,,OVC044,0.08,VWS V14.01,2013-04-16 21:33:00,
2013-04-16 16:35:00,50.7,31.8,30.14,NNE,27,3.1,9.2,48,0.00,,OVC044,0.08,VWS V14.01,2013-04-16 21:35:00,
2013-04-16 16:38:00,50.7,31.8,30.14,NE,38,4.0,5.4,48,0.00,,OVC044,0.08,VWS V14.01,2013-04-16 21:38:00,
2013-04-16 16:39:00,50.7,31.8,30.14,NE,50,5.4,5.4,48,0.00,,OVC044,0.08,VWS V14.01,2013-04-16 21:39:00,
2013-04-16 16:40:00,50.7,31.8,30.14,NNE,31,5.8,5.8,48,0.00,,OVC044,0.08,VWS V14.01,2013-04-16 21:40:00,
2013-04-16 16:41:00,50.7,31.8,30.14,NE,43,3.6,6.3,48,0.00,,OVC044,0.08,VWS V14.01,2013-04-16 21:41:00,
2013-04-16 16:43:00,50.7,31.8,30.14,North,8,5.8,7.6,48,0.00,,OVC044,0.08,VWS V14.01,2013-04-16 21:43:00,
2013-04-16 16:44:00,50.7,31.8,30.14,NNE,21,4.0,6.7,48,0.00,,OVC044,0.08,VWS V14.01,2013-04-16 21:44:00,
2013-04-16 16:45:00,50.7,31.8,30.14,NE,38,3.1,8.1,48,0.00,,OVC044,0.08,VWS V14.01,2013-04-16 21:45:00,
2013-04-16 16:46:00,50.5,31.6,30.14,NNE,20,6.3,6.3,48,0.00,,OVC044,0.08,VWS V14.01,2013-04-16 21:46:00,
2013-04-16 16:47:00,50.5,31.6,30.14,North,3,3.6,6.3,48,0.00,,OVC044,0.08,VWS V14.01,2013-04-16 21:47:00,
2013-04-16 16:48:00,50.4,31.4,30.14,NE,56,6.3,8.1,48,0.00,,OVC044,0.08,VWS V14.01,2013-04-16 21:48:00,
2013-04-16 16:49:00,50.4,31.4,30.14,NNE,27,5.8,8.7,48,0.00,,OVC044,0.08,VWS V14.01,2013-04-16 21:49:00,
2013-04-16 16:50:00,50.4,31.4,30.14,NE,50,3.1,8.1,48,0.00,,OVC044,0.08,VWS V14.01,2013-04-16 21:50:00,
2013-04-16 16:52:00,50.2,31.3,30.14,NNE,26,8.3,8.3,48,0.00,,OVC044,0.08,VWS V14.01,2013-04-16 21:52:00,
2013-04-16 16:53:00,50.2,31.3,30.14,NNE,25,8.3,10.1,48,0.00,,OVC044,0.08,VWS V14.01,2013-04-16 21:53:00,
2013-04-16 16:54:00,50.2,31.3,30.14,NE,36,8.1,10.5,48,0.00,,OVC044,0.08,VWS V14.01,2013-04-16 21:54:00,
2013-04-16 16:56:00,50.0,31.1,30.14,NE,55,5.8,7.6,48,0.00,,OVC044,0.08,VWS V14.01,2013-04-16 21:56:00,
2013-04-16 16:57:00,50.0,31.1,30.14,NE,42,8.3,8.3,48,0.00,,OVC044,0.08,VWS V14.01,2013-04-16 21:57:00,
2013-04-16 16:58:00,50.0,31.1,30.14,NE,49,2.7,5.8,48,0.00,,OVC044,0.08,VWS V14.01,2013-04-16 21:58:00,
2013-04-16 16:59:00,50.0,31.1,30.14,NE,49,2.7,5.8,48,0.00,,OVC044,0.08,VWS V14.01,2013-04-16 21:59:00,
2013-04-16 17:01:00,50.0,31.1,30.14,NNE,31,3.6,4.0,48,0.00,,OVC036,0.08,VWS V14.01,2013-04-16 22:01:00,
2013-04-16 17:03:00,50.0,31.1,30.14,North,9,9.6,9.6,48,0.00,,OVC036,0.08,VWS V14.01,2013-04-16 22:03:00,
2013-04-16 17:04:00,50.0,31.1,30.14,NE,35,8.7,8.7,48,0.00,,OVC036,0.08,VWS V14.01,2013-04-16 22:04:00,
2013-04-16 17:06:00,50.0,31.1,30.14,NE,44,5.8,7.6,48,0.00,,OVC036,0.08,VWS V14.01,2013-04-16 22:06:00,
2013-04-16 17:07:00,49.8,30.9,30.14,NNE,17,10.1,10.1,48,0.00,,OVC036,0.08,VWS V14.01,2013-04-16 22:07:00,
2013-04-16 17:09:00,49.6,30.8,30.14,NE,55,6.3,10.1,48,0.00,,OVC036,0.08,VWS V14.01,2013-04-16 22:09:00,
2013-04-16 17:10:00,49.6,30.8,30.14,NE,39,10.1,10.1,48,0.00,,OVC036,0.08,VWS V14.01,2013-04-16 22:10:00,
2013-04-16 17:12:00,49.5,30.6,30.14,NE,39,5.8,7.2,48,0.00,,OVC036,0.08,VWS V14.01,2013-04-16 22:12:00,
2013-04-16 17:14:00,49.5,32.6,30.14,NNE,27,10.5,10.5,52,0.00,,OVC036,0.08,VWS V14.01,2013-04-16 22:14:00,
2013-04-16 17:15:00,49.3,32.4,30.14,NNE,24,8.7,10.5,52,0.00,,OVC036,0.08,VWS V14.01,2013-04-16 22:15:00,
2013-04-16 17:16:00,49.3,32.4,30.14,NNE,27,5.8,8.1,52,0.00,,OVC036,0.08,VWS V14.01,2013-04-16 22:16:00,
2013-04-16 17:17:00,49.3,30.4,30.14,NE,34,7.6,10.5,48,0.00,,OVC036,0.08,VWS V14.01,2013-04-16 22:17:00,
2013-04-16 17:20:00,49.3,32.4,30.14,NNE,30,8.1,8.3,52,0.00,,OVC036,0.08,VWS V14.01,2013-04-16 22:20:00,
2013-04-16 17:22:00,49.3,32.4,30.14,NE,37,6.3,8.7,52,0.00,,OVC036,0.08,VWS V14.01,2013-04-16 22:22:00,
2013-04-16 17:23:00,49.3,32.4,30.14,North,9,6.3,6.3,52,0.00,,OVC036,0.08,VWS V14.01,2013-04-16 22:23:00,
2013-04-16 17:24:00,49.1,32.2,30.14,NNE,31,7.6,8.1,52,0.00,,OVC036,0.08,VWS V14.01,2013-04-16 22:24:00,
2013-04-16 17:25:00,49.1,30.3,30.14,NE,42,10.1,10.1,48,0.00,,OVC036,0.08,VWS V14.01,2013-04-16 22:25:00,
2013-04-16 17:27:00,49.1,30.3,30.14,NE,43,5.4,6.3,48,0.00,,OVC036,0.08,VWS V14.01,2013-04-16 22:27:00,
2013-04-16 17:28:00,49.1,32.2,30.14,NNE,16,5.4,8.7,52,0.00,,OVC036,0.08,VWS V14.01,2013-04-16 22:28:00,
2013-04-16 17:30:00,49.1,32.2,30.14,NNE,19,8.1,8.1,52,0.00,,OVC036,0.08,VWS V14.01,2013-04-16 22:30:00,
2013-04-16 17:32:00,49.3,33.4,30.14,NNE,23,8.1,8.1,54,0.00,,OVC036,0.08,VWS V14.01,2013-04-16 22:32:00,
2013-04-16 17:33:00,49.1,32.2,30.14,NNE,14,6.3,8.3,52,0.00,,OVC036,0.08,VWS V14.01,2013-04-16 22:33:00,
2013-04-16 17:37:00,49.3,32.4,30.14,NE,43,8.7,9.2,52,0.00,,OVC036,0.08,VWS V14.01,2013-04-16 22:37:00,
2013-04-16 17:38:00,49.1,30.3,30.14,NE,48,8.1,10.5,48,0.00,,OVC036,0.08,VWS V14.01,2013-04-16 22:38:00,
2013-04-16 17:39:00,49.3,32.4,30.14,NNE,27,6.3,7.2,52,0.00,,OVC036,0.08,VWS V14.01,2013-04-16 22:39:00,
2013-04-16 17:42:00,49.1,32.2,30.14,NNE,19,5.8,8.1,52,0.00,,OVC036,0.08,VWS V14.01,2013-04-16 22:42:00,
2013-04-16 17:43:00,49.3,32.4,30.14,North,9,8.1,8.1,52,0.00,,OVC036,0.08,VWS V14.01,2013-04-16 22:43:00,
2013-04-16 17:45:00,49.3,32.4,30.14,NE,45,3.6,5.8,52,0.00,,OVC036,0.08,VWS V14.01,2013-04-16 22:45:00,
2013-04-16 17:46:00,49.3,32.4,30.14,NNE,27,8.1,8.1,52,0.00,,OVC036,0.08,VWS V14.01,2013-04-16 22:46:00,
2013-04-16 17:47:00,49.3,32.4,30.14,NNE,33,3.6,8.1,52,0.00,,OVC036,0.08,VWS V14.01,2013-04-16 22:47:00,
2013-04-16 17:48:00,49.3,32.4,30.14,NE,37,6.3,8.1,52,0.00,,OVC036,0.08,VWS V14.01,2013-04-16 22:48:00,
2013-04-16 17:50:00,49.3,30.4,30.14,North,7,8.1,11.0,48,0.00,,OVC036,0.08,VWS V14.01,2013-04-16 22:50:00,
2013-04-16 17:52:00,49.3,32.4,30.14,North,353,6.3,6.3,52,0.00,,OVC036,0.08,VWS V14.01,2013-04-16 22:52:00,
2013-04-16 17:54:00,49.3,32.4,30.11,NE,42,8.1,8.7,52,0.00,,OVC036,0.08,VWS V14.01,2013-04-16 22:54:00,
2013-04-16 17:57:00,49.3,30.4,30.11,NNE,31,6.3,7.6,48,0.00,,OVC036,0.08,VWS V14.01,2013-04-16 22:57:00,
2013-04-16 17:58:00,49.3,30.4,30.11,NNE,31,8.1,8.7,48,0.00,,OVC036,0.08,VWS V14.01,2013-04-16 22:58:00,
2013-04-16 17:59:00,49.1,32.2,30.11,NNE,23,8.1,8.1,52,0.00,,OVC036,0.08,VWS V14.01,2013-04-16 22:59:00,
2013-04-16 18:02:00,49.1,32.2,30.11,NNE,18,10.1,10.1,52,0.00,,OVC034,0.08,VWS V14.01,2013-04-16 23:02:00,
2013-04-16 18:04:00,49.1,32.2,30.11,North,357,6.3,8.7,52,0.00,,OVC034,0.08,VWS V14.01,2013-04-16 23:04:00,
2013-04-16 18:05:00,48.9,32.1,30.11,NE,37,8.3,8.3,52,0.00,,OVC034,0.08,VWS V14.01,2013-04-16 23:05:00,
2013-04-16 18:09:00,48.9,32.1,30.11,NNE,27,8.3,8.7,52,0.00,,OVC034,0.08,VWS V14.01,2013-04-16 23:09:00,
2013-04-16 18:10:00,48.9,32.1,30.14,NNE,20,8.3,8.3,52,0.00,,OVC034,0.08,VWS V14.01,2013-04-16 23:10:00,
2013-04-16 18:14:00,48.9,33.0,30.14,NE,47,6.3,8.3,54,0.00,,OVC034,0.08,VWS V14.01,2013-04-16 23:14:00,
2013-04-16 18:15:00,48.9,32.1,30.14,NE,43,8.1,8.3,52,0.00,,OVC034,0.08,VWS V14.01,2013-04-16 23:15:00,
2013-04-16 18:16:00,48.9,32.1,30.14,ENE,59,10.1,10.1,52,0.00,,OVC034,0.08,VWS V14.01,2013-04-16 23:16:00,
2013-04-16 18:17:00,48.9,32.1,30.14,NNE,16,8.1,8.3,52,0.00,,OVC034,0.08,VWS V14.01,2013-04-16 23:17:00,
2013-04-16 18:19:00,48.9,33.0,30.14,NE,45,6.3,10.1,54,0.00,,OVC034,0.08,VWS V14.01,2013-04-16 23:19:00,
2013-04-16 18:20:00,48.9,33.0,30.14,North,0,6.3,6.3,54,0.00,,OVC034,0.08,VWS V14.01,2013-04-16 23:20:00,
2013-04-16 18:21:00,48.9,33.0,30.14,NNE,31,8.3,8.7,54,0.00,,OVC034,0.08,VWS V14.01,2013-04-16 23:21:00,
2013-04-16 18:22:00,48.9,32.1,30.14,ENE,61,4.0,8.7,52,0.00,,OVC034,0.08,VWS V14.01,2013-04-16 23:22:00,
2013-04-16 18:25:00,48.7,32.8,30.14,NNE,26,7.6,8.1,54,0.00,,OVC034,0.08,VWS V14.01,2013-04-16 23:25:00,
2013-04-16 18:26:00,48.7,32.8,30.14,NNE,13,6.3,8.1,54,0.00,,OVC034,0.08,VWS V14.01,2013-04-16 23:26:00,
2013-04-16 18:27:00,48.7,32.8,30.14,NNE,23,7.6,7.6,54,0.00,,OVC034,0.08,VWS V14.01,2013-04-16 23:27:00,
2013-04-16 18:28:00,48.7,32.8,30.14,North,8,6.3,8.3,54,0.00,,OVC034,0.08,VWS V14.01,2013-04-16 23:28:00,
2013-04-16 18:30:00,48.7,32.8,30.14,NNE,24,5.4,8.7,54,0.00,,OVC034,0.08,VWS V14.01,2013-04-16 23:30:00,
2013-04-16 18:31:00,48.7,32.8,30.14,NNE,27,5.8,5.8,54,0.00,,OVC034,0.08,VWS V14.01,2013-04-16 23:31:00,
2013-04-16 18:32:00,48.7,32.8,30.14,NE,53,4.9,8.1,54,0.00,,OVC034,0.08,VWS V14.01,2013-04-16 23:32:00,
2013-04-16 18:33:00,48.7,32.8,30.14,NE,34,5.4,8.1,54,0.00,,OVC034,0.08,VWS V14.01,2013-04-16 23:33:00,
2013-04-16 18:34:00,48.7,32.8,30.14,ENE,58,5.8,8.7,54,0.00,,OVC034,0.08,VWS V14.01,2013-04-16 23:34:00,
2013-04-16 18:36:00,48.7,32.8,30.14,NE,47,8.1,8.1,54,0.00,,OVC034,0.08,VWS V14.01,2013-04-16 23:36:00,
2013-04-16 18:38:00,48.7,32.8,30.14,NNE,31,4.0,6.3,54,0.00,,OVC034,0.08,VWS V14.01,2013-04-16 23:38:00,
2013-04-16 18:39:00,48.7,32.8,30.14,NE,48,7.2,8.3,54,0.00,,OVC034,0.08,VWS V14.01,2013-04-16 23:39:00,
2013-04-16 18:40:00,48.7,32.8,30.14,NNE,29,8.7,8.7,54,0.00,,OVC034,0.08,VWS V14.01,2013-04-16 23:40:00,
2013-04-16 18:42:00,48.7,32.8,30.14,NE,46,5.8,6.7,54,0.00,,OVC034,0.08,VWS V14.01,2013-04-16 23:42:00,
2013-04-16 18:43:00,48.7,32.8,30.14,North,7,3.6,6.3,54,0.00,,OVC034,0.08,VWS V14.01,2013-04-16 23:43:00,
2013-04-16 18:44:00,48.7,32.8,30.14,NE,40,5.4,7.6,54,0.00,,OVC034,0.08,VWS V14.01,2013-04-16 23:44:00,
2013-04-16 18:45:00,48.7,32.8,30.14,NE,38,5.8,7.6,54,0.00,,OVC034,0.08,VWS V14.01,2013-04-16 23:45:00,
2013-04-16 18:48:00,48.6,32.7,30.14,NNE,16,7.6,7.6,54,0.00,,OVC034,0.08,VWS V14.01,2013-04-16 23:48:00,
2013-04-16 18:49:00,48.6,32.7,30.14,North,357,5.4,7.6,54,0.00,,OVC034,0.08,VWS V14.01,2013-04-16 23:49:00,
2013-04-16 18:50:00,48.6,32.7,30.14,NE,39,5.8,6.3,54,0.00,,OVC034,0.08,VWS V14.01,2013-04-16 23:50:00,
2013-04-16 18:51:00,48.6,32.7,30.14,NE,36,8.1,8.1,54,0.00,,OVC034,0.08,VWS V14.01,2013-04-16 23:51:00,
2013-04-16 18:54:00,48.4,32.5,30.14,NE,37,8.7,8.7,54,0.00,,OVC034,0.08,VWS V14.01,2013-04-16 23:54:00,
2013-04-16 18:55:00,48.4,32.5,30.14,NE,34,6.7,11.0,54,0.00,,OVC034,0.08,VWS V14.01,2013-04-16 23:55:00,
2013-04-16 18:56:00,48.6,32.7,30.14,NNE,33,5.4,6.7,54,0.00,,OVC034,0.08,VWS V14.01,2013-04-16 23:56:00,
2013-04-16 18:57:00,48.6,32.7,30.14,NNE,17,9.2,9.2,54,0.00,,OVC034,0.08,VWS V14.01,2013-04-16 23:57:00,
2013-04-16 18:59:00,48.6,32.7,30.14,NE,45,4.0,8.1,54,0.00,,OVC034,0.08,VWS V14.01,2013-04-16 23:59:00,
2013-04-16 19:00:00,48.6,32.7,30.14,ENE,59,5.8,8.1,54,0.00,,OVC034,0.08,VWS V14.01,2013-04-17 00:00:00,
2013-04-16 19:02:00,48.4,32.5,30.14,NNE,31,8.3,8.3,54,0.00,,OVC034,0.08,VWS V14.01,2013-04-17 00:02:00,
2013-04-16 19:04:00,48.4,32.5,30.14,NNE,23,6.3,7.6,54,0.00,,OVC034,0.08,VWS V14.01,2013-04-17 00:04:00,
2013-04-16 19:05:00,48.4,32.5,30.14,NE,51,7.6,7.6,54,0.00,,OVC034,0.08,VWS V14.01,2013-04-17 00:05:00,
2013-04-16 19:06:00,48.4,32.5,30.14,NNE,33,6.3,9.6,54,0.00,,OVC034,0.08,VWS V14.01,2013-04-17 00:06:00,
2013-04-16 19:08:00,48.4,32.5,30.14,NNE,31,8.3,8.3,54,0.00,,OVC034,0.08,VWS V14.01,2013-04-17 00:08:00,
2013-04-16 19:10:00,48.4,32.5,30.14,NNE,26,5.8,6.3,54,0.00,,OVC034,0.08,VWS V14.01,2013-04-17 00:10:00,
2013-04-16 19:12:00,48.4,32.5,30.14,NE,43,5.8,6.7,54,0.00,,OVC034,0.08,VWS V14.01,2013-04-17 00:12:00,
2013-04-16 19:13:00,48.4,32.5,30.14,NNE,19,6.3,6.3,54,0.00,,OVC034,0.08,VWS V14.01,2013-04-17 00:13:00,
2013-04-16 19:15:00,48.4,32.5,30.14,NNE,25,5.4,5.4,54,0.00,,OVC034,0.08,VWS V14.01,2013-04-17 00:15:00,
2013-04-16 19:17:00,48.2,32.3,30.14,NNE,32,3.1,6.3,54,0.00,,OVC034,0.08,VWS V14.01,2013-04-17 00:17:00,
2013-04-16 19:18:00,48.2,32.3,30.14,NE,34,5.4,5.4,54,0.00,,OVC034,0.08,VWS V14.01,2013-04-17 00:18:00,
2013-04-16 19:19:00,48.2,32.3,30.14,NE,36,5.8,6.7,54,0.00,,OVC034,0.08,VWS V14.01,2013-04-17 00:19:00,
2013-04-16 19:22:00,48.2,32.3,30.14,NE,45,3.6,6.3,54,0.00,,OVC034,0.08,VWS V14.01,2013-04-17 00:22:00,
2013-04-16 19:23:00,48.2,32.3,30.14,NNE,32,3.6,6.3,54,0.00,,OVC034,0.08,VWS V14.01,2013-04-17 00:23:00,
2013-04-16 19:24:00,48.2,32.3,30.14,NE,37,3.1,6.3,54,0.00,,OVC034,0.08,VWS V14.01,2013-04-17 00:24:00,
2013-04-16 19:25:00,48.2,32.3,30.14,NE,34,4.0,5.4,54,0.00,,OVC034,0.08,VWS V14.01,2013-04-17 00:25:00,
2013-04-16 19:27:00,48.2,32.3,30.14,NE,46,3.6,5.8,54,0.00,,OVC034,0.08,VWS V14.01,2013-04-17 00:27:00,
2013-04-16 19:28:00,48.2,32.3,30.14,NE,39,3.6,5.4,54,0.00,,OVC034,0.08,VWS V14.01,2013-04-17 00:28:00,
2013-04-16 19:30:00,48.2,32.3,30.14,NNE,32,2.7,4.0,54,0.00,,OVC034,0.08,VWS V14.01,2013-04-17 00:30:00,
2013-04-16 19:33:00,48.2,33.3,30.14,NE,42,5.4,6.3,56,0.00,,OVC034,0.08,VWS V14.01,2013-04-17 00:33:00,
2013-04-16 19:35:00,48.2,33.3,30.14,NE,41,3.6,8.1,56,0.00,,OVC034,0.08,VWS V14.01,2013-04-17 00:35:00,
2013-04-16 19:36:00,48.2,33.3,30.14,NE,39,7.6,7.6,56,0.00,,OVC034,0.08,VWS V14.01,2013-04-17 00:36:00,
2013-04-16 19:37:00,48.2,33.3,30.14,NE,42,4.9,7.6,56,0.00,,OVC034,0.08,VWS V14.01,2013-04-17 00:37:00,
2013-04-16 19:39:00,48.2,32.3,30.14,NNE,27,3.1,5.4,54,0.00,,OVC034,0.08,VWS V14.01,2013-04-17 00:39:00,
2013-04-16 19:41:00,48.2,32.3,30.14,NNE,28,2.7,4.0,54,0.00,,OVC034,0.08,VWS V14.01,2013-04-17 00:41:00,
2013-04-16 19:42:00,48.2,33.3,30.14,NE,35,3.6,5.4,56,0.00,,OVC034,0.08,VWS V14.01,2013-04-17 00:42:00,
2013-04-16 19:45:00,48.0,33.1,30.14,NE,55,2.7,5.4,56,0.00,,OVC034,0.08,VWS V14.01,2013-04-17 00:45:00,
2013-04-16 19:47:00,48.0,33.1,30.14,NE,54,4.0,4.0,56,0.00,,OVC034,0.08,VWS V14.01,2013-04-17 00:47:00,
2013-04-16 19:48:00,48.0,33.1,30.14,NE,47,2.7,2.7,56,0.00,,OVC034,0.08,VWS V14.01,2013-04-17 00:48:00,
2013-04-16 19:49:00,48.0,33.1,30.14,NE,37,4.9,5.4,56,0.00,,OVC034,0.08,VWS V14.01,2013-04-17 00:49:00,
2013-04-16 19:50:00,48.0,33.1,30.14,NE,43,3.1,5.8,56,0.00,,OVC034,0.08,VWS V14.01,2013-04-17 00:50:00,
2013-04-16 19:53:00,48.0,33.1,30.14,NE,42,2.7,3.1,56,0.00,,OVC034,0.08,VWS V14.01,2013-04-17 00:53:00,
2013-04-16 19:55:00,48.0,33.1,30.14,NE,48,3.1,3.1,56,0.00,,OVC034,0.08,VWS V14.01,2013-04-17 00:55:00,
2013-04-16 19:56:00,48.0,33.1,30.14,NE,48,3.1,3.1,56,0.00,,OVC034,0.08,VWS V14.01,2013-04-17 00:56:00,
2013-04-16 19:58:00,48.0,33.1,30.14,NNE,31,3.6,3.6,56,0.00,,OVC034,0.08,VWS V14.01,2013-04-17 00:58:00,
2013-04-16 20:00:00,48.0,33.1,30.14,NNE,31,4.0,4.9,56,0.00,,OVC034,0.08,VWS V14.01,2013-04-17 01:00:00,
2013-04-16 20:01:00,48.0,33.1,30.14,NE,47,5.4,7.6,56,0.00,,OVC032,0.08,VWS V14.01,2013-04-17 01:01:00,
2013-04-16 20:02:00,48.0,33.1,30.14,NE,35,5.4,7.6,56,0.00,,OVC032,0.08,VWS V14.01,2013-04-17 01:02:00,
2013-04-16 20:05:00,48.0,33.1,30.14,NNE,32,3.6,5.4,56,0.00,,OVC032,0.08,VWS V14.01,2013-04-17 01:05:00,
2013-04-16 20:06:00,48.0,33.1,30.14,NE,38,2.7,4.9,56,0.00,,OVC032,0.08,VWS V14.01,2013-04-17 01:06:00,
2013-04-16 20:07:00,48.0,33.1,30.14,NE,38,2.7,4.9,56,0.00,,OVC032,0.08,VWS V14.01,2013-04-17 01:07:00,
2013-04-16 20:10:00,48.0,33.1,30.14,NNE,32,4.0,5.8,56,0.00,,OVC032,0.08,VWS V14.01,2013-04-17 01:10:00,
2013-04-16 20:11:00,48.0,33.1,30.14,NE,36,2.7,4.0,56,0.00,,OVC032,0.08,VWS V14.01,2013-04-17 01:11:00,
2013-04-16 20:12:00,48.0,33.1,30.14,NE,37,3.1,4.0,56,0.00,,OVC032,0.08,VWS V14.01,2013-04-17 01:12:00,
2013-04-16 20:15:00,48.0,33.1,30.14,NNE,30,3.6,5.4,56,0.00,,OVC032,0.08,VWS V14.01,2013-04-17 01:15:00,
2013-04-16 20:17:00,48.0,33.1,30.14,NE,44,3.1,5.8,56,0.00,,OVC032,0.08,VWS V14.01,2013-04-17 01:17:00,
2013-04-16 20:18:00,48.0,33.1,30.14,NE,37,3.6,3.6,56,0.00,,OVC032,0.08,VWS V14.01,2013-04-17 01:18:00,
2013-04-16 20:19:00,48.0,33.1,30.14,NE,43,4.9,5.4,56,0.00,,OVC032,0.08,VWS V14.01,2013-04-17 01:19:00,
2013-04-16 20:20:00,48.0,33.1,30.14,NE,41,6.3,6.3,56,0.00,,OVC032,0.08,VWS V14.01,2013-04-17 01:20:00,
2013-04-16 20:22:00,48.0,33.1,30.14,NE,34,8.3,8.3,56,0.00,,OVC032,0.08,VWS V14.01,2013-04-17 01:22:00,
2013-04-16 20:24:00,48.0,33.1,30.14,NNE,25,3.6,4.0,56,0.00,,OVC032,0.08,VWS V14.01,2013-04-17 01:24:00,
2013-04-16 20:27:00,48.0,33.1,30.14,NE,46,2.2,3.6,56,0.00,,OVC032,0.08,VWS V14.01,2013-04-17 01:27:00,
2013-04-16 20:29:00,48.0,33.1,30.14,NNE,33,4.0,5.8,56,0.00,,OVC032,0.08,VWS V14.01,2013-04-17 01:29:00,
2013-04-16 20:30:00,48.0,33.1,30.14,NE,46,2.7,5.8,56,0.00,,OVC032,0.08,VWS V14.01,2013-04-17 01:30:00,
2013-04-16 20:33:00,48.0,33.1,30.14,NE,42,4.0,5.8,56,0.00,,OVC032,0.08,VWS V14.01,2013-04-17 01:33:00,
2013-04-16 20:34:00,48.0,33.1,30.14,NNE,33,4.9,5.8,56,0.00,,OVC032,0.08,VWS V14.01,2013-04-17 01:34:00,
2013-04-16 20:35:00,48.0,33.1,30.14,NE,37,2.7,6.3,56,0.00,,OVC032,0.08,VWS V14.01,2013-04-17 01:35:00,
2013-04-16 20:37:00,48.0,33.1,30.14,NE,38,3.6,6.3,56,0.00,,OVC032,0.08,VWS V14.01,2013-04-17 01:37:00,
2013-04-16 20:38:00,48.0,33.1,30.14,NNE,22,3.1,3.1,56,0.00,,OVC032,0.08,VWS V14.01,2013-04-17 01:38:00,
2013-04-16 20:40:00,48.0,33.1,30.14,NE,38,5.4,5.4,56,0.00,,OVC032,0.08,VWS V14.01,2013-04-17 01:40:00,
2013-04-16 20:42:00,48.0,33.1,30.14,NE,36,3.1,5.4,56,0.00,,OVC032,0.08,VWS V14.01,2013-04-17 01:42:00,
2013-04-16 20:45:00,48.0,33.1,30.14,NE,43,5.8,5.8,56,0.00,,OVC032,0.08,VWS V14.01,2013-04-17 01:45:00,
2013-04-16 20:47:00,48.0,33.1,30.14,NE,37,4.9,5.4,56,0.00,,OVC032,0.08,VWS V14.01,2013-04-17 01:47:00,
2013-04-16 20:48:00,48.0,33.1,30.14,NE,42,3.6,3.6,56,0.00,,OVC032,0.08,VWS V14.01,2013-04-17 01:48:00,
2013-04-16 20:50:00,48.0,33.1,30.14,NNE,32,3.1,4.9,56,0.00,,OVC032,0.08,VWS V14.01,2013-04-17 01:50:00,
2013-04-16 20:51:00,48.0,33.1,30.14,NNE,28,3.1,4.5,56,0.00,,OVC032,0.08,VWS V14.01,2013-04-17 01:51:00,
2013-04-16 20:52:00,48.0,33.1,30.14,NNE,28,2.7,4.5,56,0.00,,OVC032,0.08,VWS V14.01,2013-04-17 01:52:00,
2013-04-16 20:54:00,48.0,34.0,30.14,NNE,32,0.0,0.0,58,0.00,,OVC032,0.08,VWS V14.01,2013-04-17 01:54:00,
2013-04-16 20:56:00,48.0,34.0,30.14,NE,43,2.2,3.1,58,0.00,,OVC032,0.08,VWS V14.01,2013-04-17 01:56:00,
2013-04-16 21:00:00,48.0,34.0,30.14,NE,34,2.2,2.2,58,0.00,,OVC032,0.08,VWS V14.01,2013-04-17 02:00:00,
2013-04-16 21:01:00,48.0,34.0,30.14,NE,42,3.1,3.1,58,0.00,,OVC032,0.08,VWS V14.01,2013-04-17 02:01:00,
2013-04-16 21:02:00,48.0,34.0,30.14,NE,35,4.9,4.9,58,0.00,,OVC032,0.08,VWS V14.01,2013-04-17 02:02:00,
2013-04-16 21:05:00,48.0,34.0,30.14,NE,45,0.0,4.0,58,0.00,,OVC032,0.08,VWS V14.01,2013-04-17 02:05:00,
2013-04-16 21:06:00,48.0,34.0,30.14,NE,45,0.0,0.0,58,0.00,,OVC032,0.08,VWS V14.01,2013-04-17 02:06:00,
2013-04-16 21:07:00,48.0,34.0,30.14,NE,52,2.7,3.6,58,0.00,,OVC032,0.08,VWS V14.01,2013-04-17 02:07:00,
2013-04-16 21:08:00,48.0,34.0,30.14,NE,47,4.0,4.0,58,0.00,,OVC032,0.08,VWS V14.01,2013-04-17 02:08:00,
2013-04-16 21:10:00,48.0,34.0,30.14,NE,44,2.7,2.7,58,0.00,,OVC032,0.08,VWS V14.01,2013-04-17 02:10:00,
2013-04-16 21:11:00,48.2,33.3,30.14,NE,42,3.6,4.0,56,0.00,,OVC032,0.08,VWS V14.01,2013-04-17 02:11:00,
2013-04-16 21:13:00,48.2,33.3,30.14,NE,36,4.5,4.5,56,0.00,,OVC032,0.08,VWS V14.01,2013-04-17 02:13:00,
2013-04-16 21:14:00,48.2,33.3,30.14,NE,46,3.1,5.8,56,0.00,,OVC032,0.08,VWS V14.01,2013-04-17 02:14:00,
2013-04-16 21:16:00,48.2,33.3,30.14,NNE,33,2.7,4.9,56,0.00,,OVC032,0.08,VWS V14.01,2013-04-17 02:16:00,
2013-04-16 21:17:00,48.2,33.3,30.14,NE,35,2.7,2.7,56,0.00,,OVC032,0.08,VWS V14.01,2013-04-17 02:17:00,
2013-04-16 21:19:00,48.2,33.3,30.14,NE,45,0.0,0.0,56,0.00,,OVC032,0.08,VWS V14.01,2013-04-17 02:19:00,
2013-04-16 21:20:00,48.2,33.3,30.14,NE,43,0.0,0.0,56,0.00,,OVC032,0.08,VWS V14.01,2013-04-17 02:20:00,
2013-04-16 21:22:00,48.2,33.3,30.14,NE,56,4.0,5.4,56,0.00,,OVC032,0.08,VWS V14.01,2013-04-17 02:22:00,
2013-04-16 21:24:00,48.2,33.3,30.14,NE,52,2.2,3.1,56,0.00,,OVC032,0.08,VWS V14.01,2013-04-17 02:24:00,
2013-04-16 21:25:00,48.2,33.3,30.14,NE,52,3.1,3.1,56,0.00,,OVC032,0.08,VWS V14.01,2013-04-17 02:25:00,
2013-04-16 21:27:00,48.2,33.3,30.14,NE,42,3.6,3.6,56,0.00,,OVC032,0.08,VWS V14.01,2013-04-17 02:27:00,
2013-04-16 21:28:00,48.2,33.3,30.14,ENE,57,4.0,4.0,56,0.00,,OVC032,0.08,VWS V14.01,2013-04-17 02:28:00,
2013-04-16 21:29:00,48.4,33.4,30.14,NNE,15,3.6,3.6,56,0.00,,OVC032,0.08,VWS V14.01,2013-04-17 02:29:00,
2013-04-16 21:30:00,48.4,33.4,30.14,NE,52,3.6,3.6,56,0.00,,OVC032,0.08,VWS V14.01,2013-04-17 02:30:00,
2013-04-16 21:32:00,48.4,33.4,30.14,NE,53,3.1,3.1,56,0.00,,OVC032,0.08,VWS V14.01,2013-04-17 02:32:00,
2013-04-16 21:33:00,48.4,33.4,30.14,NNE,23,4.0,4.0,56,0.00,,OVC032,0.08,VWS V14.01,2013-04-17 02:33:00,
2013-04-16 21:36:00,48.4,33.4,30.14,ENE,59,0.0,0.0,56,0.00,,OVC032,0.08,VWS V14.01,2013-04-17 02:36:00,
2013-04-16 21:38:00,48.4,33.4,30.14,ENE,60,0.0,3.1,56,0.00,,OVC032,0.08,VWS V14.01,2013-04-17 02:38:00,
2013-04-16 21:39:00,48.4,33.4,30.14,ENE,60,0.0,0.0,56,0.00,,OVC032,0.08,VWS V14.01,2013-04-17 02:39:00,
2013-04-16 21:41:00,48.4,33.4,30.14,ENE,60,0.0,0.0,56,0.00,,OVC032,0.08,VWS V14.01,2013-04-17 02:41:00,
2013-04-16 21:43:00,48.4,33.4,30.14,ENE,60,0.0,0.0,56,0.00,,OVC032,0.08,VWS V14.01,2013-04-17 02:43:00,
2013-04-16 21:45:00,48.4,33.4,30.14,ENE,61,0.0,0.0,56,0.00,,OVC032,0.08,VWS V14.01,2013-04-17 02:45:00,
2013-04-16 21:48:00,48.4,33.4,30.14,ENE,61,0.0,0.0,56,0.00,,OVC032,0.08,VWS V14.01,2013-04-17 02:48:00,
2013-04-16 21:50:00,48.4,33.4,30.14,ENE,61,0.0,0.0,56,0.00,,OVC032,0.08,VWS V14.01,2013-04-17 02:50:00,
2013-04-16 21:53:00,48.4,33.4,30.14,ENE,61,2.2,4.0,56,0.00,,OVC032,0.08,VWS V14.01,2013-04-17 02:53:00,
2013-04-16 21:54:00,48.4,33.4,30.14,ENE,61,3.1,3.1,56,0.00,,OVC032,0.08,VWS V14.01,2013-04-17 02:54:00,
2013-04-16 21:55:00,48.4,33.4,30.14,ENE,61,3.6,3.6,56,0.00,,OVC032,0.08,VWS V14.01,2013-04-17 02:55:00,
2013-04-16 21:57:00,48.4,33.4,30.14,ENE,61,2.7,3.6,56,0.00,,OVC032,0.08,VWS V14.01,2013-04-17 02:57:00,
2013-04-16 21:58:00,48.4,33.4,30.14,NE,56,0.0,0.0,56,0.00,,OVC032,0.08,VWS V14.01,2013-04-17 02:58:00,
2013-04-16 21:59:00,48.4,33.4,30.14,NE,56,0.0,0.0,56,0.00,,OVC032,0.08,VWS V14.01,2013-04-17 02:59:00,
2013-04-16 22:00:00,48.4,33.4,30.14,NE,56,0.0,0.0,56,0.00,,OVC032,0.08,VWS V14.01,2013-04-17 03:00:00,
2013-04-16 22:01:00,48.4,33.4,30.14,NE,56,0.0,0.0,56,0.00,,OVC032,0.08,VWS V14.01,2013-04-17 03:01:00,
2013-04-16 22:02:00,48.4,33.4,30.14,NE,56,0.0,0.0,56,0.00,,OVC030,0.08,VWS V14.01,2013-04-17 03:02:00,
2013-04-16 22:04:00,48.4,33.4,30.14,NE,56,0.0,0.0,56,0.00,,OVC030,0.08,VWS V14.01,2013-04-17 03:04:00,
2013-04-16 22:05:00,48.4,33.4,30.14,ENE,59,4.0,4.0,56,0.00,,OVC030,0.08,VWS V14.01,2013-04-17 03:05:00,
2013-04-16 22:06:00,48.4,33.4,30.14,ENE,59,0.0,4.0,56,0.00,,OVC030,0.08,VWS V14.01,2013-04-17 03:06:00,
2013-04-16 22:07:00,48.4,33.4,30.14,ENE,59,0.0,0.0,56,0.00,,OVC030,0.08,VWS V14.01,2013-04-17 03:07:00,
2013-04-16 22:10:00,48.4,33.4,30.14,ENE,59,0.0,0.0,56,0.00,,OVC030,0.08,VWS V14.01,2013-04-17 03:10:00,
2013-04-16 22:11:00,48.4,33.4,30.14,ENE,59,0.0,0.0,56,0.00,,OVC030,0.08,VWS V14.01,2013-04-17 03:11:00,
2013-04-16 22:12:00,48.4,33.4,30.14,ENE,59,0.0,0.0,56,0.00,,OVC030,0.08,VWS V14.01,2013-04-17 03:12:00,
2013-04-16 22:13:00,48.4,33.4,30.14,ENE,59,0.0,0.0,56,0.00,,OVC030,0.08,VWS V14.01,2013-04-17 03:13:00,
2013-04-16 22:15:00,48.4,33.4,30.14,ENE,59,0.0,0.0,56,0.00,,OVC030,0.08,VWS V14.01,2013-04-17 03:15:00,
2013-04-16 22:16:00,48.4,33.4,30.14,ENE,59,0.0,0.0,56,0.00,,OVC030,0.08,VWS V14.01,2013-04-17 03:16:00,
2013-04-16 22:17:00,48.4,33.4,30.14,ENE,57,0.0,0.0,56,0.00,,OVC030,0.08,VWS V14.01,2013-04-17 03:17:00,
2013-04-16 22:18:00,48.4,33.4,30.14,NE,56,2.7,4.0,56,0.00,,OVC030,0.08,VWS V14.01,2013-04-17 03:18:00,
2013-04-16 22:21:00,48.4,33.4,30.14,NE,49,0.0,2.7,56,0.00,,OVC030,0.08,VWS V14.01,2013-04-17 03:21:00,
2013-04-16 22:22:00,48.4,33.4,30.14,NE,50,0.0,0.0,56,0.00,,OVC030,0.08,VWS V14.01,2013-04-17 03:22:00,
2013-04-16 22:24:00,48.4,33.4,30.14,NE,50,2.2,2.7,56,0.00,,OVC030,0.08,VWS V14.01,2013-04-17 03:24:00,
2013-04-16 22:25:00,48.4,33.4,30.14,NE,50,2.2,3.6,56,0.00,,OVC030,0.08,VWS V14.01,2013-04-17 03:25:00,
2013-04-16 22:26:00,48.4,33.4,30.14,NE,50,3.1,3.1,56,0.00,,OVC030,0.08,VWS V14.01,2013-04-17 03:26:00,
2013-04-16 22:27:00,48.4,33.4,30.14,NE,53,3.6,4.0,56,0.00,,OVC030,0.08,VWS V14.01,2013-04-17 03:27:00,
2013-04-16 22:28:00,48.4,33.4,30.14,NE,53,2.7,4.0,56,0.00,,OVC030,0.08,VWS V14.01,2013-04-17 03:28:00,
2013-04-16 22:29:00,48.4,33.4,30.14,NE,54,2.7,3.6,56,0.00,,OVC030,0.08,VWS V14.01,2013-04-17 03:29:00,
2013-04-16 22:31:00,48.4,33.4,30.14,ENE,66,4.0,4.0,56,0.00,,OVC030,0.08,VWS V14.01,2013-04-17 03:31:00,
2013-04-16 22:32:00,48.4,33.4,30.14,ENE,63,4.0,4.0,56,0.00,,OVC030,0.08,VWS V14.01,2013-04-17 03:32:00,
2013-04-16 22:33:00,48.4,33.4,30.14,ENE,61,2.7,4.0,56,0.00,,OVC030,0.08,VWS V14.01,2013-04-17 03:33:00,
2013-04-16 22:35:00,48.6,33.6,30.14,NE,52,0.0,3.1,56,0.00,,OVC030,0.08,VWS V14.01,2013-04-17 03:35:00,
2013-04-16 22:37:00,48.6,33.6,30.14,NE,49,3.1,3.1,56,0.00,,OVC030,0.08,VWS V14.01,2013-04-17 03:37:00,
2013-04-16 22:38:00,48.6,33.6,30.14,NE,49,0.0,3.1,56,0.00,,OVC030,0.08,VWS V14.01,2013-04-17 03:38:00,
2013-04-16 22:40:00,48.4,33.4,30.14,NE,48,0.0,0.0,56,0.00,,OVC030,0.08,VWS V14.01,2013-04-17 03:40:00,
2013-04-16 22:43:00,48.6,33.6,30.14,NE,48,0.0,2.7,56,0.00,,OVC030,0.08,VWS V14.01,2013-04-17 03:43:00,
2013-04-16 22:44:00,48.6,33.6,30.14,NE,48,0.0,2.7,56,0.00,,OVC030,0.08,VWS V14.01,2013-04-17 03:44:00,
2013-04-16 22:47:00,48.6,33.6,30.14,NE,48,0.0,0.0,56,0.00,,OVC030,0.08,VWS V14.01,2013-04-17 03:47:00,
2013-04-16 22:49:00,48.6,33.6,30.14,NE,48,0.0,0.0,56,0.00,,OVC030,0.08,VWS V14.01,2013-04-17 03:49:00,
2013-04-16 22:50:00,48.6,33.6,30.14,NE,48,0.0,0.0,56,0.00,,OVC030,0.08,VWS V14.01,2013-04-17 03:50:00,
2013-04-16 22:52:00,48.6,33.6,30.14,NE,48,0.0,0.0,56,0.00,,OVC030,0.08,VWS V14.01,2013-04-17 03:52:00,
2013-04-16 22:54:00,48.6,33.6,30.14,NE,48,0.0,0.0,56,0.00,,OVC030,0.08,VWS V14.01,2013-04-17 03:54:00,
2013-04-16 22:55:00,48.6,33.6,30.14,NE,48,0.0,0.0,56,0.00,,OVC030,0.08,VWS V14.01,2013-04-17 03:55:00,
2013-04-16 22:56:00,48.6,33.6,30.14,NE,48,0.0,0.0,56,0.00,,OVC030,0.08,VWS V14.01,2013-04-17 03:56:00,
2013-04-16 22:57:00,48.6,33.6,30.14,NE,48,0.0,0.0,56,0.00,,OVC030,0.08,VWS V14.01,2013-04-17 03:57:00,
2013-04-16 23:00:00,48.6,33.6,30.14,NE,56,3.6,4.0,56,0.00,,OVC030,0.08,VWS V14.01,2013-04-17 04:00:00,
2013-04-16 23:02:00,48.6,33.6,30.14,NE,56,0.0,0.0,56,0.00,,OVC030,0.08,VWS V14.01,2013-04-17 04:02:00,
2013-04-16 23:05:00,48.6,33.6,30.14,NE,56,0.0,0.0,56,0.00,,OVC030,0.08,VWS V14.01,2013-04-17 04:05:00,
2013-04-16 23:07:00,48.6,33.6,30.14,NE,56,0.0,0.0,56,0.00,,OVC030,0.08,VWS V14.01,2013-04-17 04:07:00,
2013-04-16 23:09:00,48.6,33.6,30.14,NE,56,0.0,0.0,56,0.00,,OVC030,0.08,VWS V14.01,2013-04-17 04:09:00,
2013-04-16 23:10:00,48.6,33.6,30.14,NE,56,2.2,2.2,56,0.00,,OVC030,0.08,VWS V14.01,2013-04-17 04:10:00,
2013-04-16 23:11:00,48.6,33.6,30.14,NE,56,0.0,3.1,56,0.00,,OVC030,0.08,VWS V14.01,2013-04-17 04:11:00,
2013-04-16 23:12:00,48.6,33.6,30.14,NE,56,2.2,2.2,56,0.00,,OVC030,0.08,VWS V14.01,2013-04-17 04:12:00,
2013-04-16 23:13:00,48.6,33.6,30.14,NE,56,0.0,0.0,56,0.00,,OVC030,0.08,VWS V14.01,2013-04-17 04:13:00,
2013-04-16 23:14:00,48.6,33.6,30.14,ENE,57,0.0,0.0,56,0.00,,OVC030,0.08,VWS V14.01,2013-04-17 04:14:00,
2013-04-16 23:15:00,48.6,33.6,30.14,NE,56,0.0,0.0,56,0.00,,OVC030,0.08,VWS V14.01,2013-04-17 04:15:00,
2013-04-16 23:16:00,48.6,33.6,30.14,ENE,57,2.2,2.2,56,0.00,,OVC030,0.08,VWS V14.01,2013-04-17 04:16:00,
2013-04-16 23:17:00,48.4,33.4,30.14,NE,56,2.7,2.7,56,0.00,,OVC030,0.08,VWS V14.01,2013-04-17 04:17:00,
2013-04-16 23:19:00,48.4,34.3,30.14,NE,56,0.0,0.0,58,0.00,,OVC030,0.08,VWS V14.01,2013-04-17 04:19:00,
2013-04-16 23:20:00,48.4,34.3,30.14,NE,56,0.0,3.6,58,0.00,,OVC030,0.08,VWS V14.01,2013-04-17 04:20:00,
2013-04-16 23:21:00,48.4,34.3,30.14,NE,56,0.0,0.0,58,0.00,,OVC030,0.08,VWS V14.01,2013-04-17 04:21:00,
2013-04-16 23:22:00,48.4,34.3,30.14,ENE,57,0.0,0.0,58,0.00,,OVC030,0.08,VWS V14.01,2013-04-17 04:22:00,
2013-04-16 23:24:00,48.4,34.3,30.17,ENE,57,0.0,0.0,58,0.00,,OVC030,0.08,VWS V14.01,2013-04-17 04:24:00,
2013-04-16 23:25:00,48.4,34.3,30.17,ENE,60,3.6,3.6,58,0.00,,OVC030,0.08,VWS V14.01,2013-04-17 04:25:00,
2013-04-16 23:27:00,48.4,34.3,30.17,ENE,65,3.6,3.6,58,0.00,,OVC030,0.08,VWS V14.01,2013-04-17 04:27:00,
2013-04-16 23:28:00,48.4,34.3,30.17,ENE,65,0.0,2.2,58,0.00,,OVC030,0.08,VWS V14.01,2013-04-17 04:28:00,
2013-04-16 23:29:00,48.4,34.3,30.17,ENE,65,0.0,0.0,58,0.00,,OVC030,0.08,VWS V14.01,2013-04-17 04:29:00,
2013-04-16 23:31:00,48.4,34.3,30.17,ENE,65,4.0,4.0,58,0.00,,OVC028,0.08,VWS V14.01,2013-04-17 04:31:00,
2013-04-16 23:32:00,48.4,34.3,30.17,ENE,65,0.0,4.0,58,0.00,,OVC028,0.08,VWS V14.01,2013-04-17 04:32:00,
2013-04-16 23:33:00,48.4,34.3,30.17,ENE,65,0.0,0.0,58,0.00,,OVC028,0.08,VWS V14.01,2013-04-17 04:33:00,
2013-04-16 23:36:00,48.4,34.3,30.17,ENE,65,0.0,0.0,58,0.00,,OVC028,0.08,VWS V14.01,2013-04-17 04:36:00,
2013-04-16 23:37:00,48.4,34.3,30.17,ENE,65,0.0,0.0,58,0.00,,OVC028,0.08,VWS V14.01,2013-04-17 04:37:00,
2013-04-16 23:38:00,48.4,34.3,30.17,ENE,65,0.0,0.0,58,0.00,,OVC028,0.08,VWS V14.01,2013-04-17 04:38:00,
2013-04-16 23:39:00,48.4,34.3,30.17,ENE,63,0.0,0.0,58,0.00,,OVC028,0.08,VWS V14.01,2013-04-17 04:39:00,
2013-04-16 23:41:00,48.4,34.3,30.17,ENE,62,0.0,0.0,58,0.00,,OVC028,0.08,VWS V14.01,2013-04-17 04:41:00,
2013-04-16 23:42:00,48.4,34.3,30.17,ENE,62,0.0,0.0,58,0.00,,OVC028,0.08,VWS V14.01,2013-04-17 04:42:00,
2013-04-16 23:43:00,48.4,34.3,30.17,ENE,63,0.0,0.0,58,0.00,,OVC028,0.08,VWS V14.01,2013-04-17 04:43:00,
2013-04-16 23:44:00,48.4,34.3,30.17,ENE,63,0.0,0.0,58,0.00,,OVC028,0.08,VWS V14.01,2013-04-17 04:44:00,
2013-04-16 23:45:00,48.4,34.3,30.17,ENE,63,0.0,0.0,58,0.00,,OVC028,0.08,VWS V14.01,2013-04-17 04:45:00,
2013-04-16 23:47:00,48.4,35.2,30.17,ENE,63,0.0,0.0,60,0.00,,OVC028,0.08,VWS V14.01,2013-04-17 04:47:00,
2013-04-16 23:49:00,48.4,35.2,30.17,ENE,63,0.0,0.0,60,0.00,,OVC028,0.08,VWS V14.01,2013-04-17 04:49:00,
2013-04-16 23:50:00,48.4,35.2,30.17,ENE,63,0.0,0.0,60,0.00,,OVC028,0.08,VWS V14.01,2013-04-17 04:50:00,
2013-04-16 23:52:00,48.4,35.2,30.17,ENE,63,3.6,3.6,60,0.00,,OVC028,0.08,VWS V14.01,2013-04-17 04:52:00,
2013-04-16 23:53:00,48.4,35.2,30.17,ENE,63,2.2,3.6,60,0.00,,OVC028,0.08,VWS V14.01,2013-04-17 04:53:00,
2013-04-16 23:54:00,48.4,35.2,30.14,ENE,63,0.0,2.2,60,0.00,,OVC028,0.08,VWS V14.01,2013-04-17 04:54:00,
2013-04-16 23:56:00,48.4,35.2,30.14,ENE,63,0.0,0.0,60,0.00,,OVC028,0.08,VWS V14.01,2013-04-17 04:56:00,
2013-04-16 23:58:00,48.4,35.2,30.14,ENE,63,0.0,0.0,60,0.00,,OVC028,0.08,VWS V14.01,2013-04-17 04:58:00,
2013-04-16 23:59:00,48.4,35.2,30.14,ENE,63,0.0,0.0,60,0.00,,OVC028,0.08,VWS V14.01,2013-04-17 04:59:00,